IT9IJI-13 Weather Reports


Display with metric or nautical units.
time (UTC)temp
F
wind
direction
speed
MPH
gust
MPH
rain 1hr
in
rain 24hr
in
rain mn
in
humidity
%
barometer
mb
20260903214303 82 294 1.0 6.0 0.00 0.00 0.00 71 1016.8
20260903214203 82 294 1.0 6.0 0.00 0.00 0.00 71 1016.8
20260903214103 82 294 1.0 6.0 0.00 0.00 0.00 71 1016.8
20260903214003 82 294 1.0 6.0 0.00 0.00 0.00 71 1016.8
20260903213903 82 294 2.0 6.0 0.00 0.00 0.00 71 1016.9
20260903213803 82 294 1.0 6.0 0.00 0.00 0.00 71 1016.8
20260903213703 82 294 2.0 6.0 0.00 0.00 0.00 71 1016.8
20260903213603 82 296 2.0 6.0 0.00 0.00 0.00 71 1016.8
20260903213503 82 296 2.0 6.0 0.00 0.00 0.00 71 1016.8
20260903213403 82 297 2.0 6.0 0.00 0.00 0.00 71 1016.9
20260903213303 82 297 2.0 6.0 0.00 0.00 0.00 71 1016.9
20260903213203 82 298 2.0 6.0 0.00 0.00 0.00 71 1016.9
20260903213103 82 298 2.0 6.0 0.00 0.00 0.00 71 1016.8
20260903213003 82 298 2.0 6.0 0.00 0.00 0.00 72 1016.8
20260903212903 82 298 2.0 6.0 0.00 0.00 0.00 72 1016.9
20260903212803 82 298 3.0 6.0 0.00 0.00 0.00 72 1016.9
20260903212703 82 298 2.0 6.0 0.00 0.00 0.00 72 1016.9
20260903212603 82 298 2.0 6.0 0.00 0.00 0.00 72 1016.9
20260903212503 82 298 2.0 6.0 0.00 0.00 0.00 72 1016.9
20260903212403 82 297 2.0 6.0 0.00 0.00 0.00 72 1016.9
20260903212306 82 297 2.0 5.0 0.00 0.00 0.00 72 1016.9
20260903212204 82 295 2.0 5.0 0.00 0.00 0.00 72 1016.9
20260903212104 82 296 2.0 5.0 0.00 0.00 0.00 72 1016.9
20260903212004 82 297 2.0 6.0 0.00 0.00 0.00 72 1016.9
20260903211904 82 296 2.0 6.0 0.00 0.00 0.00 72 1016.9
20260903211804 82 296 2.0 6.0 0.00 0.00 0.00 72 1016.9
20260903211704 82 296 2.0 6.0 0.00 0.00 0.00 72 1016.9
20260903211604 82 297 2.0 6.0 0.00 0.00 0.00 72 1016.9
20260903211504 82 298 2.0 6.0 0.00 0.00 0.00 72 1016.9
20260903211404 82 297 2.0 7.0 0.00 0.00 0.00 72 1017.0
20260903211304 82 297 2.0 7.0 0.00 0.00 0.00 72 1016.9
20260903211204 82 297 2.0 7.0 0.00 0.00 0.00 72 1017.0
20260903211104 82 297 2.0 7.0 0.00 0.00 0.00 72 1017.0
20260903211004 82 296 3.0 7.0 0.00 0.00 0.00 72 1017.0
20260903210904 82 296 3.0 7.0 0.00 0.00 0.00 72 1016.9
20260903210804 82 296 3.0 7.0 0.00 0.00 0.00 72 1016.9
20260903210704 82 297 3.0 7.0 0.00 0.00 0.00 72 1017.1
20260903210604 82 297 3.0 7.0 0.00 0.00 0.00 72 1017.0
20260903210504 82 296 3.0 7.0 0.00 0.00 0.00 72 1017.0
20260903210404 82 297 3.0 7.0 0.00 0.00 0.00 72 1017.1
20260903210304 82 296 3.0 7.0 0.00 0.00 0.00 72 1017.2
20260903210204 82 297 3.0 7.0 0.00 0.00 0.00 72 1017.2
20260903210104 82 297 4.0 7.0 0.00 0.00 0.00 72 1017.3
20260903210004 82 297 4.0 7.0 0.00 0.00 0.00 72 1017.3
20260903205904 82 297 3.0 7.0 0.00 0.00 0.00 72 1017.2
20260903205804 82 297 3.0 7.0 0.00 0.00 0.00 72 1017.2
20260903205704 82 296 3.0 7.0 0.00 0.00 0.00 72 1017.3
20260903205604 82 297 3.0 6.0 0.00 0.00 0.00 72 1017.2
20260903205504 82 297 3.0 6.0 0.00 0.00 0.00 72 1017.2
20260903205404 82 296 3.0 6.0 0.00 0.00 0.00 72 1017.3
20260903205306 82 297 2.0 6.0 0.00 0.00 0.00 72 1017.2
20260903205204 83 298 2.0 6.0 0.00 0.00 0.00 72 1017.2
20260903205104 82 300 2.0 6.0 0.00 0.00 0.00 72 1017.2
20260903205004 82 300 2.0 6.0 0.00 0.00 0.00 72 1017.1
20260903204904 83 301 2.0 6.0 0.00 0.00 0.00 72 1017.1
20260903204804 82 301 2.0 6.0 0.00 0.00 0.00 72 1017.1
20260903204704 83 300 2.0 6.0 0.00 0.00 0.00 72 1017.2
20260903204604 83 298 2.0 6.0 0.00 0.00 0.00 72 1017.2
20260903204504 83 297 2.0 6.0 0.00 0.00 0.00 72 1017.0
20260903204404 83 298 2.0 6.0 0.00 0.00 0.00 72 1017.1
20260903204304 83 298 2.0 6.0 0.00 0.00 0.00 72 1017.1
20260903204204 83 296 2.0 6.0 0.00 0.00 0.00 72 1017.2
20260903204104 83 293 2.0 6.0 0.00 0.00 0.00 72 1017.1
20260903204004 83 292 2.0 6.0 0.00 0.00 0.00 72 1017.1
20260903203904 83 292 2.0 6.0 0.00 0.00 0.00 72 1017.0
20260903203804 83 292 2.0 6.0 0.00 0.00 0.00 72 1017.1
20260903203704 83 292 2.0 6.0 0.00 0.00 0.00 72 1017.1
20260903203604 83 292 2.0 6.0 0.00 0.00 0.00 72 1017.2
20260903203504 83 292 2.0 6.0 0.00 0.00 0.00 72 1017.2
20260903203404 83 292 2.0 6.0 0.00 0.00 0.00 72 1017.2
20260903203304 83 292 2.0 6.0 0.00 0.00 0.00 72 1017.2
20260903203204 83 292 2.0 6.0 0.00 0.00 0.00 72 1017.1
20260903203104 83 292 2.0 6.0 0.00 0.00 0.00 72 1017.1
20260903203004 83 292 2.0 6.0 0.00 0.00 0.00 72 1017.2
20260903202903 83 293 2.0 6.0 0.00 0.00 0.00 72 1017.1
20260903202804 83 293 2.0 6.0 0.00 0.00 0.00 72 1017.2
20260903202703 83 293 2.0 5.0 0.00 0.00 0.00 72 1017.2
20260903202603 83 293 2.0 5.0 0.00 0.00 0.00 71 1017.2
20260903202504 83 293 2.0 5.0 0.00 0.00 0.00 71 1017.2
20260903202404 83 294 2.0 5.0 0.00 0.00 0.00 71 1017.1
20260903202306 83 294 2.0 5.0 0.00 0.00 0.00 71 1017.1
20260903202204 83 294 2.0 5.0 0.00 0.00 0.00 71 1017.1
20260903202103 83 294 1.0 5.0 0.00 0.00 0.00 71 1017.0
20260903202003 83 294 1.0 4.0 0.00 0.00 0.00 71 1017.1
20260903201903 83 293 1.0 4.0 0.00 0.00 0.00 71 1017.0
20260903201803 83 293 1.0 4.0 0.00 0.00 0.00 71 1017.1
20260903201703 83 292 1.0 4.0 0.00 0.00 0.00 71 1017.2
20260903201603 83 292 1.0 4.0 0.00 0.00 0.00 71 1017.1
20260903201503 83 292 1.0 4.0 0.00 0.00 0.00 71 1017.0
20260903201403 83 292 2.0 4.0 0.00 0.00 0.00 71 1017.1
20260903201303 83 292 2.0 4.0 0.00 0.00 0.00 71 1017.1
20260903201203 83 292 2.0 4.0 0.00 0.00 0.00 70 1017.1
20260903201103 83 292 2.0 4.0 0.00 0.00 0.00 70 1017.1
20260903201003 83 292 2.0 4.0 0.00 0.00 0.00 70 1017.1
20260903200903 83 292 2.0 4.0 0.00 0.00 0.00 70 1017.1
20260903200803 83 292 2.0 4.0 0.00 0.00 0.00 70 1017.1
20260903200703 83 292 2.0 4.0 0.00 0.00 0.00 70 1017.1
20260903200603 83 292 2.0 4.0 0.00 0.00 0.00 70 1017.0
20260903200503 83 292 2.0 4.0 0.00 0.00 0.00 70 1017.0
20260903200403 83 293 1.0 4.0 0.00 0.00 0.00 70 1017.1
20260903200303 83 293 2.0 5.0 0.00 0.00 0.00 70 1017.2
20260903200203 83 292 2.0 6.0 0.00 0.00 0.00 70 1017.2
20260903200103 83 292 2.0 6.0 0.00 0.00 0.00 70 1017.1
20260903200003 83 292 2.0 6.0 0.00 0.00 0.00 70 1017.1
20260903195903 83 292 2.0 6.0 0.00 0.00 0.00 70 1017.1
20260903195803 83 292 2.0 6.0 0.00 0.00 0.00 70 1017.1
20260903195703 83 294 2.0 6.0 0.00 0.00 0.00 70 1017.1
20260903195603 83 294 2.0 6.0 0.00 0.00 0.00 70 1017.2
20260903195503 83 294 2.0 6.0 0.00 0.00 0.00 70 1017.1
20260903195403 83 294 2.0 6.0 0.00 0.00 0.00 70 1017.1
20260903195306 83 295 3.0 6.0 0.00 0.00 0.00 70 1017.1
20260903195203 83 295 3.0 6.0 0.00 0.00 0.00 70 1017.0
20260903195103 83 295 3.0 6.0 0.00 0.00 0.00 70 1017.1
20260903195004 83 295 3.0 6.0 0.00 0.00 0.00 70 1017.1
20260903194903 83 296 3.0 6.0 0.00 0.00 0.00 70 1017.1
20260903194803 83 296 3.0 6.0 0.00 0.00 0.00 70 1017.2
20260903194703 83 295 3.0 6.0 0.00 0.00 0.00 71 1017.1
20260903194603 83 295 3.0 6.0 0.00 0.00 0.00 71 1017.0
20260903194503 83 295 3.0 6.0 0.00 0.00 0.00 71 1016.9
20260903194403 83 295 3.0 6.0 0.00 0.00 0.00 71 1017.1
20260903194303 83 295 3.0 6.0 0.00 0.00 0.00 71 1017.1
20260903194203 83 295 3.0 6.0 0.00 0.00 0.00 71 1017.0
20260903194103 83 296 3.0 6.0 0.00 0.00 0.00 71 1016.9
20260903194003 83 296 3.0 6.0 0.00 0.00 0.00 71 1017.0
20260903193903 83 295 3.0 6.0 0.00 0.00 0.00 71 1017.1
20260903193803 83 294 3.0 6.0 0.00 0.00 0.00 71 1017.0
20260903193703 83 295 3.0 6.0 0.00 0.00 0.00 71 1017.0
20260903193603 83 294 3.0 6.0 0.00 0.00 0.00 71 1017.0
20260903193503 83 295 3.0 6.0 0.00 0.00 0.00 71 1017.1
20260903193403 83 295 3.0 6.0 0.00 0.00 0.00 71 1017.1
20260903193303 83 295 3.0 6.0 0.00 0.00 0.00 71 1017.1
20260903193203 83 295 3.0 6.0 0.00 0.00 0.00 71 1017.1
20260903193103 83 296 3.0 6.0 0.00 0.00 0.00 71 1017.2
20260903193003 83 296 3.0 6.0 0.00 0.00 0.00 71 1017.1
20260903192903 83 296 3.0 6.0 0.00 0.00 0.00 71 1017.1
20260903192803 83 296 3.0 6.0 0.00 0.00 0.00 71 1017.1
20260903192703 83 295 3.0 7.0 0.00 0.00 0.00 71 1017.0
20260903192603 83 296 3.0 7.0 0.00 0.00 0.00 71 1017.0
20260903192503 83 294 3.0 8.0 0.00 0.00 0.00 71 1017.0
20260903192403 83 294 3.0 8.0 0.00 0.00 0.00 71 1017.0
20260903192306 83 293 3.0 8.0 0.00 0.00 0.00 71 1016.9
20260903192203 83 294 4.0 9.0 0.00 0.00 0.00 71 1016.9
20260903192103 83 292 4.0 9.0 0.00 0.00 0.00 71 1016.9
20260903192003 83 292 4.0 9.0 0.00 0.00 0.00 71 1016.9
20260903191903 83 293 4.0 9.0 0.00 0.00 0.00 71 1016.9
20260903191803 83 293 4.0 9.0 0.00 0.00 0.00 71 1016.9
20260903191703 83 293 4.0 9.0 0.00 0.00 0.00 71 1016.9
20260903191603 83 294 4.0 9.0 0.00 0.00 0.00 71 1016.9
20260903191503 83 294 4.0 9.0 0.00 0.00 0.00 71 1016.8
20260903191403 83 295 3.0 9.0 0.00 0.00 0.00 71 1016.8
20260903191303 83 295 3.0 9.0 0.00 0.00 0.00 71 1016.8
20260903191203 83 295 3.0 9.0 0.00 0.00 0.00 71 1016.8
20260903191103 83 296 2.0 7.0 0.00 0.00 0.00 70 1016.9
20260903191003 83 296 2.0 7.0 0.00 0.00 0.00 70 1016.8
20260903190903 83 299 2.0 7.0 0.00 0.00 0.00 70 1016.7
20260903190803 83 301 2.0 7.0 0.00 0.00 0.00 70 1016.7
20260903190703 83 302 2.0 8.0 0.00 0.00 0.00 70 1016.7
20260903190603 83 300 2.0 8.0 0.00 0.00 0.00 70 1016.8
20260903190503 83 299 2.0 8.0 0.00 0.00 0.00 70 1016.7
20260903190403 83 301 2.0 8.0 0.00 0.00 0.00 70 1016.7
20260903190303 83 300 3.0 8.0 0.00 0.00 0.00 70 1016.6
20260903190203 83 299 3.0 8.0 0.00 0.00 0.00 70 1016.7
20260903190003 83 298 3.0 8.0 0.00 0.00 0.00 70 1016.5
20260903185903 84 298 3.0 8.0 0.00 0.00 0.00 70 1016.6
20260903185803 84 297 3.0 8.0 0.00 0.00 0.00 69 1016.5
20260903185703 84 296 3.0 7.0 0.00 0.00 0.00 69 1016.5
20260903185603 84 297 3.0 7.0 0.00 0.00 0.00 69 1016.5
20260903185503 84 297 2.0 7.0 0.00 0.00 0.00 69 1016.5
20260903185403 84 294 2.0 7.0 0.00 0.00 0.00 69 1016.5
20260903185306 84 294 2.0 5.0 0.00 0.00 0.00 69 1016.5
20260903185203 84 295 2.0 6.0 0.00 0.00 0.00 69 1016.5
20260903185103 84 296 2.0 6.0 0.00 0.00 0.00 69 1016.5
20260903185003 84 296 2.0 6.0 0.00 0.00 0.00 69 1016.5
20260903184903 84 295 3.0 6.0 0.00 0.00 0.00 69 1016.5
20260903184803 84 296 3.0 6.0 0.00 0.00 0.00 69 1016.5
20260903184703 84 298 3.0 6.0 0.00 0.00 0.00 69 1016.5
20260903184603 84 298 3.0 6.0 0.00 0.00 0.00 69 1016.5
20260903184504 84 297 4.0 6.0 0.00 0.00 0.00 69 1016.5
20260903184404 84 298 4.0 6.0 0.00 0.00 0.00 69 1016.5
20260903184304 84 298 4.0 6.0 0.00 0.00 0.00 69 1016.5
20260903184204 84 299 3.0 6.0 0.00 0.00 0.00 69 1016.5
20260903184104 84 299 3.0 6.0 0.00 0.00 0.00 69 1016.5
20260903184004 84 299 3.0 6.0 0.00 0.00 0.00 69 1016.5
20260903183904 84 299 3.0 6.0 0.00 0.00 0.00 69 1016.5
20260903183804 84 298 3.0 6.0 0.00 0.00 0.00 69 1016.6
20260903183704 84 297 3.0 6.0 0.00 0.00 0.00 69 1016.6
20260903183604 84 298 3.0 6.0 0.00 0.00 0.00 69 1016.5
20260903183504 84 299 3.0 6.0 0.00 0.00 0.00 69 1016.6
20260903183404 84 300 3.0 7.0 0.00 0.00 0.00 69 1016.5
20260903183304 84 300 3.0 9.0 0.00 0.00 0.00 68 1016.5
20260903183204 84 301 3.0 9.0 0.00 0.00 0.00 69 1016.5
20260903183104 84 300 4.0 9.0 0.00 0.00 0.00 69 1016.4
20260903183004 84 300 4.0 9.0 0.00 0.00 0.00 69 1016.4
20260903182904 84 300 4.0 9.0 0.00 0.00 0.00 68 1016.4
20260903182804 84 300 4.0 9.0 0.00 0.00 0.00 68 1016.4
20260903182704 84 299 4.0 9.0 0.00 0.00 0.00 68 1016.4
20260903182604 84 299 3.0 9.0 0.00 0.00 0.00 68 1016.4
20260903182504 84 299 3.0 9.0 0.00 0.00 0.00 68 1016.3
20260903182404 84 298 3.0 9.0 0.00 0.00 0.00 68 1016.3
20260903182306 84 300 3.0 8.0 0.00 0.00 0.00 68 1016.4
20260903182204 84 301 3.0 7.0 0.00 0.00 0.00 68 1016.4
20260903182104 84 301 3.0 7.0 0.00 0.00 0.00 68 1016.4
20260903182004 84 301 3.0 7.0 0.00 0.00 0.00 68 1016.5
20260903181904 84 301 3.0 7.0 0.00 0.00 0.00 68 1016.5
20260903181804 84 301 3.0 7.0 0.00 0.00 0.00 68 1016.4
20260903181704 84 302 3.0 7.0 0.00 0.00 0.00 68 1016.5
20260903181604 84 303 3.0 7.0 0.00 0.00 0.00 68 1016.4
20260903181504 84 301 3.0 7.0 0.00 0.00 0.00 68 1016.4
20260903181404 84 302 3.0 7.0 0.00 0.00 0.00 68 1016.4
20260903181304 84 299 2.0 7.0 0.00 0.00 0.00 68 1016.3
20260903181204 84 298 2.0 6.0 0.00 0.00 0.00 68 1016.4
20260903181104 84 298 2.0 6.0 0.00 0.00 0.00 68 1016.4
20260903181004 84 297 2.0 6.0 0.00 0.00 0.00 69 1016.4
20260903180904 84 297 1.0 6.0 0.00 0.00 0.00 68 1016.4
20260903180804 84 296 1.0 6.0 0.00 0.00 0.00 68 1016.3
20260903180704 84 296 1.0 6.0 0.00 0.00 0.00 68 1016.3
20260903180604 84 298 1.0 6.0 0.00 0.00 0.00 68 1016.3
20260903180504 84 299 1.0 6.0 0.00 0.00 0.00 69 1016.3
20260903180404 84 297 2.0 7.0 0.00 0.00 0.00 69 1016.2
20260903180304 84 298 2.0 7.0 0.00 0.00 0.00 68 1016.3
20260903180204 84 298 2.0 7.0 0.00 0.00 0.00 68 1016.2
20260903180104 84 298 2.0 7.0 0.00 0.00 0.00 68 1016.2
20260903180004 84 298 2.0 7.0 0.00 0.00 0.00 68 1016.2
20260903175904 84 298 2.0 7.0 0.00 0.00 0.00 69 1016.2
20260903175804 84 298 2.0 7.0 0.00 0.00 0.00 69 1016.1
20260903175703 84 298 2.0 7.0 0.00 0.00 0.00 68 1016.1
20260903175604 84 298 2.0 7.0 0.00 0.00 0.00 69 1016.2
20260903175503 84 299 2.0 7.0 0.00 0.00 0.00 68 1016.1
20260903175403 84 300 2.0 6.0 0.00 0.00 0.00 68 1016.1
20260903175306 84 300 2.0 6.0 0.00 0.00 0.00 68 1016.1
20260903175204 84 300 2.0 6.0 0.00 0.00 0.00 68 1016.0
20260903175103 84 301 2.0 6.0 0.00 0.00 0.00 68 1016.0
20260903175003 84 300 2.0 6.0 0.00 0.00 0.00 68 1016.1
20260903174904 84 300 2.0 6.0 0.00 0.00 0.00 68 1016.2
20260903174803 84 299 2.0 6.0 0.00 0.00 0.00 68 1016.1
20260903174703 84 298 2.0 6.0 0.00 0.00 0.00 68 1016.1
20260903174603 84 296 2.0 6.0 0.00 0.00 0.00 68 1016.1
20260903174503 84 292 2.0 6.0 0.00 0.00 0.00 68 1016.1
20260903174403 84 291 2.0 6.0 0.00 0.00 0.00 68 1016.0
20260903174303 84 291 1.0 6.0 0.00 0.00 0.00 68 1016.1
20260903174203 84 291 2.0 6.0 0.00 0.00 0.00 68 1016.1
20260903174104 84 292 2.0 6.0 0.00 0.00 0.00 68 1016.1
20260903174003 84 293 2.0 6.0 0.00 0.00 0.00 68 1016.2
20260903173903 84 294 2.0 6.0 0.00 0.00 0.00 68 1016.1
20260903173803 84 296 2.0 7.0 0.00 0.00 0.00 68 1016.0
20260903173703 84 296 3.0 7.0 0.00 0.00 0.00 68 1016.1
20260903173604 84 296 3.0 7.0 0.00 0.00 0.00 68 1016.1
20260903173503 84 297 3.0 7.0 0.00 0.00 0.00 68 1016.0
20260903173403 84 297 3.0 7.0 0.00 0.00 0.00 68 1016.0
20260903173303 84 297 3.0 7.0 0.00 0.00 0.00 68 1016.0
20260903173203 84 297 3.0 7.0 0.00 0.00 0.00 68 1015.9
20260903173103 84 297 3.0 7.0 0.00 0.00 0.00 68 1016.0
20260903173003 84 296 3.0 7.0 0.00 0.00 0.00 68 1016.0
20260903172903 84 296 3.0 7.0 0.00 0.00 0.00 68 1015.9
20260903172803 84 295 3.0 7.0 0.00 0.00 0.00 67 1015.9
20260903172703 84 297 3.0 7.0 0.00 0.00 0.00 67 1015.9
20260903172603 84 296 3.0 7.0 0.00 0.00 0.00 67 1016.0
20260903172503 84 296 3.0 7.0 0.00 0.00 0.00 67 1016.0
20260903172403 84 296 3.0 7.0 0.00 0.00 0.00 67 1015.9
20260903172306 84 297 3.0 7.0 0.00 0.00 0.00 67 1015.9
20260903172203 84 296 3.0 7.0 0.00 0.00 0.00 67 1016.0
20260903172103 84 296 3.0 7.0 0.00 0.00 0.00 67 1015.9
20260903172003 84 297 3.0 7.0 0.00 0.00 0.00 67 1015.9
20260903171903 84 296 3.0 7.0 0.00 0.00 0.00 67 1016.0
20260903171803 84 295 4.0 7.0 0.00 0.00 0.00 67 1016.0
20260903171703 84 295 4.0 7.0 0.00 0.00 0.00 67 1016.0
20260903171603 85 296 4.0 7.0 0.00 0.00 0.00 67 1016.0
20260903171503 85 296 4.0 7.0 0.00 0.00 0.00 67 1016.0
20260903171403 85 296 4.0 7.0 0.00 0.00 0.00 66 1016.0
20260903171303 85 296 3.0 7.0 0.00 0.00 0.00 66 1016.1
20260903171203 85 296 4.0 7.0 0.00 0.00 0.00 66 1016.1
20260903171103 85 296 4.0 7.0 0.00 0.00 0.00 66 1016.0
20260903171003 85 295 4.0 7.0 0.00 0.00 0.00 66 1015.9
20260903170903 85 297 4.0 7.0 0.00 0.00 0.00 66 1015.8
20260903170803 85 298 4.0 7.0 0.00 0.00 0.00 66 1015.8
20260903170703 85 296 4.0 7.0 0.00 0.00 0.00 66 1015.7
20260903170603 85 296 4.0 7.0 0.00 0.00 0.00 66 1015.8
20260903170503 85 296 4.0 7.0 0.00 0.00 0.00 66 1015.8
20260903170403 85 295 4.0 7.0 0.00 0.00 0.00 66 1015.8
20260903170303 85 295 4.0 7.0 0.00 0.00 0.00 66 1015.8
20260903170203 85 296 3.0 7.0 0.00 0.00 0.00 67 1015.7
20260903170103 85 296 3.0 7.0 0.00 0.00 0.00 67 1015.6
20260903170003 85 296 3.0 7.0 0.00 0.00 0.00 67 1015.6
20260903165903 85 296 3.0 7.0 0.00 0.00 0.00 67 1015.7
20260903165803 85 295 2.0 7.0 0.00 0.00 0.00 67 1015.6
20260903165703 85 295 2.0 7.0 0.00 0.00 0.00 67 1015.6
20260903165603 85 296 2.0 8.0 0.00 0.00 0.00 66 1015.5
20260903165503 85 295 3.0 8.0 0.00 0.00 0.00 66 1015.5
20260903165403 85 295 3.0 8.0 0.00 0.00 0.00 66 1015.6
20260903165305 85 295 3.0 8.0 0.00 0.00 0.00 66 1015.6
20260903165203 85 294 3.0 8.0 0.00 0.00 0.00 66 1015.5
20260903165103 85 295 2.0 8.0 0.00 0.00 0.00 66 1015.6
20260903165003 85 294 3.0 10.0 0.00 0.00 0.00 66 1015.5
20260903164903 85 294 3.0 10.0 0.00 0.00 0.00 66 1015.6
20260903164803 85 294 3.0 10.0 0.00 0.00 0.00 66 1015.5
20260903164703 85 295 3.0 10.0 0.00 0.00 0.00 66 1015.5
20260903164603 85 296 3.0 10.0 0.00 0.00 0.00 66 1015.5
20260903164503 85 297 3.0 10.0 0.00 0.00 0.00 66 1015.5
20260903164403 85 298 3.0 10.0 0.00 0.00 0.00 66 1015.4
20260903164303 85 300 3.0 10.0 0.00 0.00 0.00 66 1015.4
20260903164203 85 299 4.0 10.0 0.00 0.00 0.00 66 1015.4
20260903164103 85 299 4.0 10.0 0.00 0.00 0.00 66 1015.5
20260903164003 85 300 4.0 10.0 0.00 0.00 0.00 65 1015.4
20260903163903 85 299 4.0 9.0 0.00 0.00 0.00 65 1015.3
20260903163803 85 299 4.0 10.0 0.00 0.00 0.00 65 1015.4
20260903163703 85 299 4.0 10.0 0.00 0.00 0.00 65 1015.3
20260903163603 86 298 4.0 10.0 0.00 0.00 0.00 65 1015.4
20260903163503 86 296 4.0 10.0 0.00 0.00 0.00 64 1015.3
20260903163403 86 297 4.0 10.0 0.00 0.00 0.00 64 1015.2
20260903163303 86 296 4.0 10.0 0.00 0.00 0.00 64 1015.3
20260903163203 86 296 4.0 10.0 0.00 0.00 0.00 64 1015.2
20260903163103 86 295 4.0 10.0 0.00 0.00 0.00 64 1015.4
20260903163004 86 296 4.0 10.0 0.00 0.00 0.00 64 1015.3
20260903162903 86 296 4.0 10.0 0.00 0.00 0.00 64 1015.3
20260903162803 86 296 4.0 12.0 0.00 0.00 0.00 64 1015.2
20260903162703 86 296 4.0 12.0 0.00 0.00 0.00 64 1015.3
20260903162603 86 297 4.0 12.0 0.00 0.00 0.00 64 1015.3
20260903162503 86 300 4.0 12.0 0.00 0.00 0.00 64 1015.4
20260903162403 86 299 4.0 12.0 0.00 0.00 0.00 64 1015.5
20260903162306 86 300 4.0 12.0 0.00 0.00 0.00 64 1015.4
20260903162203 86 301 4.0 12.0 0.00 0.00 0.00 63 1015.5
20260903162103 86 301 4.0 12.0 0.00 0.00 0.00 63 1015.5
20260903162003 86 301 4.0 12.0 0.00 0.00 0.00 63 1015.6
20260903161903 86 301 4.0 12.0 0.00 0.00 0.00 63 1015.6
20260903161804 86 301 3.0 8.0 0.00 0.00 0.00 63 1015.6
20260903161704 86 301 3.0 8.0 0.00 0.00 0.00 63 1015.6
20260903161604 86 301 3.0 8.0 0.00 0.00 0.00 63 1015.7
20260903161504 86 298 3.0 9.0 0.00 0.00 0.00 63 1015.6
20260903161404 86 300 4.0 9.0 0.00 0.00 0.00 63 1015.6
20260903161304 86 300 4.0 9.0 0.00 0.00 0.00 63 1015.5
20260903161204 86 299 4.0 9.0 0.00 0.00 0.00 63 1015.5
20260903161104 86 299 4.0 11.0 0.00 0.00 0.00 63 1015.5
20260903161004 86 298 5.0 11.0 0.00 0.00 0.00 63 1015.5
20260903160904 86 300 4.0 11.0 0.00 0.00 0.00 63 1015.4
20260903160804 86 300 5.0 11.0 0.00 0.00 0.00 63 1015.5
20260903160704 86 301 5.0 11.0 0.00 0.00 0.00 63 1015.5
20260903160604 86 301 5.0 11.0 0.00 0.00 0.00 63 1015.5
20260903160504 86 300 5.0 11.0 0.00 0.00 0.00 63 1015.5
20260903160404 86 299 5.0 11.0 0.00 0.00 0.00 63 1015.5
20260903160304 87 299 5.0 11.0 0.00 0.00 0.00 63 1015.5
20260903160204 87 298 5.0 11.0 0.00 0.00 0.00 63 1015.6
20260903160104 87 299 4.0 11.0 0.00 0.00 0.00 62 1015.6
20260903160004 87 299 4.0 13.0 0.00 0.00 0.00 62 1015.5
20260903155904 87 298 5.0 13.0 0.00 0.00 0.00 62 1015.5
20260903155804 87 298 5.0 13.0 0.00 0.00 0.00 62 1015.7
20260903155704 87 297 5.0 13.0 0.00 0.00 0.00 62 1015.6
20260903155604 87 297 5.0 13.0 0.00 0.00 0.00 62 1015.7
20260903155504 87 298 5.0 13.0 0.00 0.00 0.00 62 1015.7
20260903155404 87 297 4.0 13.0 0.00 0.00 0.00 62 1015.7
20260903155306 87 298 4.0 13.0 0.00 0.00 0.00 62 1015.8
20260903155204 87 299 4.0 13.0 0.00 0.00 0.00 62 1015.8
20260903155104 87 299 4.0 13.0 0.00 0.00 0.00 62 1015.7
20260903155004 87 298 4.0 10.0 0.00 0.00 0.00 62 1015.8
20260903154904 87 298 4.0 8.0 0.00 0.00 0.00 62 1015.9
20260903154804 87 297 3.0 8.0 0.00 0.00 0.00 62 1015.9
20260903154704 87 299 3.0 8.0 0.00 0.00 0.00 62 1015.8
20260903154604 87 299 4.0 8.0 0.00 0.00 0.00 62 1015.8
20260903154504 87 298 4.0 8.0 0.00 0.00 0.00 62 1015.7
20260903154404 87 297 5.0 11.0 0.00 0.00 0.00 62 1015.9
20260903154304 87 296 5.0 11.0 0.00 0.00 0.00 62 1015.8
20260903154204 87 296 5.0 11.0 0.00 0.00 0.00 62 1015.8
20260903154104 87 296 5.0 11.0 0.00 0.00 0.00 62 1015.8
20260903154004 87 295 5.0 11.0 0.00 0.00 0.00 62 1015.8
20260903153904 87 294 5.0 12.0 0.00 0.00 0.00 62 1015.9
20260903153804 87 295 5.0 12.0 0.00 0.00 0.00 62 1015.8
20260903153704 87 295 5.0 12.0 0.00 0.00 0.00 62 1015.8
20260903153604 87 295 5.0 12.0 0.00 0.00 0.00 62 1015.8
20260903153504 87 295 4.0 12.0 0.00 0.00 0.00 62 1015.8
20260903153404 87 297 4.0 12.0 0.00 0.00 0.00 62 1015.8
20260903153304 87 298 4.0 12.0 0.00 0.00 0.00 62 1015.8
20260903153204 87 300 4.0 12.0 0.00 0.00 0.00 62 1015.7
20260903153103 87 300 4.0 12.0 0.00 0.00 0.00 62 1015.7
20260903153004 87 301 4.0 12.0 0.00 0.00 0.00 62 1015.7
20260903152903 87 304 3.0 7.0 0.00 0.00 0.00 61 1015.7
20260903152804 87 304 3.0 7.0 0.00 0.00 0.00 61 1015.7
20260903152703 87 305 3.0 8.0 0.00 0.00 0.00 61 1015.7
20260903152604 87 306 3.0 8.0 0.00 0.00 0.00 61 1015.7
20260903152503 87 305 3.0 8.0 0.00 0.00 0.00 61 1015.7
20260903152404 87 304 3.0 8.0 0.00 0.00 0.00 61 1015.7
20260903152306 87 304 3.0 8.0 0.00 0.00 0.00 61 1015.7
20260903152203 87 303 3.0 8.0 0.00 0.00 0.00 61 1015.7
20260903152103 87 304 3.0 8.0 0.00 0.00 0.00 61 1015.7
20260903152004 87 305 3.0 8.0 0.00 0.00 0.00 61 1015.7
20260903151904 87 303 3.0 8.0 0.00 0.00 0.00 61 1015.7
20260903151803 87 302 3.0 8.0 0.00 0.00 0.00 61 1015.6
20260903151704 87 302 3.0 8.0 0.00 0.00 0.00 61 1015.7
20260903151603 87 301 3.0 8.0 0.00 0.00 0.00 61 1015.6
20260903151503 87 302 3.0 8.0 0.00 0.00 0.00 61 1015.6
20260903151403 87 302 4.0 8.0 0.00 0.00 0.00 61 1015.5
20260903151304 87 301 4.0 11.0 0.00 0.00 0.00 61 1015.5
20260903151203 87 300 4.0 11.0 0.00 0.00 0.00 61 1015.5
20260903151103 87 299 4.0 11.0 0.00 0.00 0.00 61 1015.5
20260903151003 87 298 3.0 11.0 0.00 0.00 0.00 61 1015.4
20260903150903 87 300 4.0 11.0 0.00 0.00 0.00 61 1015.4
20260903150803 87 299 4.0 11.0 0.00 0.00 0.00 61 1015.4
20260903150703 87 299 4.0 11.0 0.00 0.00 0.00 61 1015.4
20260903150603 87 299 4.0 11.0 0.00 0.00 0.00 61 1015.4
20260903150504 87 300 3.0 11.0 0.00 0.00 0.00 61 1015.3
20260903150403 87 298 3.0 11.0 0.00 0.00 0.00 61 1015.4
20260903150303 87 298 3.0 8.0 0.00 0.00 0.00 61 1015.4
20260903150203 87 298 3.0 9.0 0.00 0.00 0.00 61 1015.3
20260903150103 87 298 3.0 9.0 0.00 0.00 0.00 61 1015.4
20260903150003 87 296 3.0 9.0 0.00 0.00 0.00 61 1015.4
20260903145903 87 294 3.0 9.0 0.00 0.00 0.00 61 1015.4
20260903145803 87 296 4.0 9.0 0.00 0.00 0.00 61 1015.5
20260903145703 87 296 4.0 9.0 0.00 0.00 0.00 61 1015.5
20260903145603 87 296 4.0 9.0 0.00 0.00 0.00 61 1015.4
20260903145503 87 296 4.0 9.0 0.00 0.00 0.00 61 1015.3
20260903145403 87 297 4.0 9.0 0.00 0.00 0.00 62 1015.4
20260903145306 87 296 4.0 9.0 0.00 0.00 0.00 62 1015.4
20260903145203 87 296 4.0 7.0 0.00 0.00 0.00 62 1015.4
20260903145103 87 296 4.0 7.0 0.00 0.00 0.00 62 1015.4
20260903145003 87 298 4.0 7.0 0.00 0.00 0.00 62 1015.5
20260903144903 87 298 4.0 7.0 0.00 0.00 0.00 62 1015.5
20260903144803 87 296 4.0 7.0 0.00 0.00 0.00 62 1015.4
20260903144703 87 296 4.0 7.0 0.00 0.00 0.00 62 1015.5
20260903144603 87 297 4.0 13.0 0.00 0.00 0.00 62 1015.6
20260903144503 87 298 5.0 13.0 0.00 0.00 0.00 62 1015.6
20260903144403 87 298 4.0 13.0 0.00 0.00 0.00 62 1015.7
20260903144303 87 299 4.0 13.0 0.00 0.00 0.00 62 1015.6
20260903144203 87 299 4.0 13.0 0.00 0.00 0.00 62 1015.6
20260903144103 87 298 5.0 14.0 0.00 0.00 0.00 62 1015.5
20260903144003 87 296 5.0 14.0 0.00 0.00 0.00 62 1015.6
20260903143903 87 296 5.0 14.0 0.00 0.00 0.00 62 1015.6
20260903143803 87 298 5.0 14.0 0.00 0.00 0.00 62 1015.6
20260903143703 87 297 6.0 16.0 0.00 0.00 0.00 62 1015.8
20260903143603 87 296 6.0 16.0 0.00 0.00 0.00 62 1015.7
20260903143503 87 297 6.0 16.0 0.00 0.00 0.00 62 1015.6
20260903143403 87 297 6.0 16.0 0.00 0.00 0.00 62 1015.6
20260903143303 87 297 6.0 16.0 0.00 0.00 0.00 62 1015.7
20260903143203 87 296 6.0 16.0 0.00 0.00 0.00 62 1015.7
20260903143103 87 295 6.0 16.0 0.00 0.00 0.00 61 1015.6
20260903143004 87 296 6.0 16.0 0.00 0.00 0.00 61 1015.7
20260903142903 87 296 5.0 16.0 0.00 0.00 0.00 61 1015.8
20260903142803 88 295 5.0 16.0 0.00 0.00 0.00 61 1015.6
20260903142703 88 296 4.0 14.0 0.00 0.00 0.00 61 1015.8
20260903142603 88 295 4.0 14.0 0.00 0.00 0.00 61 1015.7
20260903142503 87 294 4.0 10.0 0.00 0.00 0.00 61 1015.7
20260903142403 87 295 4.0 10.0 0.00 0.00 0.00 61 1015.7
20260903142306 87 294 4.0 10.0 0.00 0.00 0.00 61 1015.7
20260903142203 87 296 4.0 9.0 0.00 0.00 0.00 61 1015.6
20260903142103 87 297 4.0 9.0 0.00 0.00 0.00 61 1015.7
20260903142003 87 296 4.0 9.0 0.00 0.00 0.00 61 1015.8
20260903141903 87 297 4.0 10.0 0.00 0.00 0.00 61 1015.8
20260903141803 87 297 5.0 11.0 0.00 0.00 0.00 61 1015.8
20260903141703 87 297 6.0 11.0 0.00 0.00 0.00 62 1015.8
20260903141603 87 296 6.0 11.0 0.00 0.00 0.00 62 1015.8
20260903141503 87 297 6.0 11.0 0.00 0.00 0.00 62 1015.8
20260903141403 87 297 6.0 11.0 0.00 0.00 0.00 62 1015.8
20260903141303 87 298 6.0 11.0 0.00 0.00 0.00 61 1015.8
20260903141203 87 297 6.0 15.0 0.00 0.00 0.00 61 1015.8
20260903141103 87 297 6.0 15.0 0.00 0.00 0.00 61 1015.8
20260903141003 87 297 6.0 15.0 0.00 0.00 0.00 61 1015.8
20260903140903 87 297 6.0 15.0 0.00 0.00 0.00 61 1015.9
20260903140803 87 297 6.0 15.0 0.00 0.00 0.00 60 1015.8
20260903140703 88 297 6.0 15.0 0.00 0.00 0.00 60 1015.7
20260903140603 88 298 6.0 15.0 0.00 0.00 0.00 60 1015.7
20260903140503 88 296 6.0 15.0 0.00 0.00 0.00 60 1015.8
20260903140403 88 297 6.0 15.0 0.00 0.00 0.00 60 1015.9
20260903140303 88 296 6.0 15.0 0.00 0.00 0.00 60 1015.9
20260903140203 88 297 6.0 13.0 0.00 0.00 0.00 60 1015.9
20260903140003 88 297 6.0 13.0 0.00 0.00 0.00 60 1015.8
20260903135903 88 297 6.0 13.0 0.00 0.00 0.00 60 1015.9
20260903135803 88 297 6.0 13.0 0.00 0.00 0.00 59 1016.0
20260903135703 88 297 6.0 13.0 0.00 0.00 0.00 60 1015.9
20260903135603 88 296 5.0 13.0 0.00 0.00 0.00 59 1015.9
20260903135503 88 297 5.0 13.0 0.00 0.00 0.00 60 1015.9
20260903135403 88 296 5.0 13.0 0.00 0.00 0.00 60 1015.9
20260903135306 88 297 5.0 13.0 0.00 0.00 0.00 59 1015.9
20260903135203 88 297 5.0 13.0 0.00 0.00 0.00 59 1015.9
20260903135103 88 297 5.0 13.0 0.00 0.00 0.00 59 1015.9
20260903135003 88 297 4.0 13.0 0.00 0.00 0.00 59 1016.0
20260903134903 88 299 4.0 10.0 0.00 0.00 0.00 60 1015.9
20260903134803 88 298 4.0 11.0 0.00 0.00 0.00 60 1015.9
20260903134703 88 298 5.0 11.0 0.00 0.00 0.00 59 1015.9
20260903134603 88 298 4.0 11.0 0.00 0.00 0.00 59 1016.0
20260903134503 88 297 4.0 11.0 0.00 0.00 0.00 59 1015.9
20260903134403 88 297 4.0 11.0 0.00 0.00 0.00 59 1015.9
20260903134303 88 297 4.0 11.0 0.00 0.00 0.00 59 1015.9
20260903134203 88 298 4.0 11.0 0.00 0.00 0.00 59 1016.0
20260903134103 88 296 4.0 11.0 0.00 0.00 0.00 59 1015.9
20260903134004 88 296 4.0 15.0 0.00 0.00 0.00 58 1015.9
20260903133904 88 294 4.0 15.0 0.00 0.00 0.00 58 1015.9
20260903133804 88 296 4.0 15.0 0.00 0.00 0.00 58 1015.9
20260903133704 88 297 4.0 15.0 0.00 0.00 0.00 58 1015.9
20260903133604 88 298 4.0 15.0 0.00 0.00 0.00 58 1015.9
20260903133504 88 299 4.0 15.0 0.00 0.00 0.00 57 1016.0
20260903133404 88 299 4.0 15.0 0.00 0.00 0.00 58 1015.9
20260903133304 88 296 4.0 15.0 0.00 0.00 0.00 59 1016.0
20260903133204 88 296 5.0 15.0 0.00 0.00 0.00 58 1016.0
20260903133104 88 296 4.0 15.0 0.00 0.00 0.00 58 1016.1
20260903133004 88 297 4.0 13.0 0.00 0.00 0.00 58 1016.0
20260903132904 88 299 4.0 13.0 0.00 0.00 0.00 58 1015.9
20260903132804 88 299 5.0 13.0 0.00 0.00 0.00 58 1015.9
20260903132704 88 298 5.0 12.0 0.00 0.00 0.00 58 1015.9
20260903132604 88 299 5.0 12.0 0.00 0.00 0.00 58 1016.0
20260903132504 88 297 5.0 12.0 0.00 0.00 0.00 57 1016.0
20260903132404 88 298 5.0 12.0 0.00 0.00 0.00 57 1015.9
20260903132306 88 299 6.0 12.0 0.00 0.00 0.00 57 1016.0
20260903132204 88 299 5.0 12.0 0.00 0.00 0.00 57 1016.0
20260903132104 88 299 6.0 12.0 0.00 0.00 0.00 58 1015.9
20260903132004 88 298 6.0 12.0 0.00 0.00 0.00 58 1016.0
20260903131904 88 296 6.0 12.0 0.00 0.00 0.00 57 1015.9
20260903131804 88 297 6.0 13.0 0.00 0.00 0.00 57 1015.9
20260903131704 88 296 6.0 13.0 0.00 0.00 0.00 58 1015.9
20260903131604 88 296 6.0 13.0 0.00 0.00 0.00 58 1016.0
20260903131504 88 294 6.0 13.0 0.00 0.00 0.00 57 1015.9
20260903131404 88 294 6.0 13.0 0.00 0.00 0.00 56 1016.0
20260903131304 88 294 6.0 13.0 0.00 0.00 0.00 57 1015.9
20260903131204 88 293 6.0 13.0 0.00 0.00 0.00 57 1016.0
20260903131104 88 292 6.0 13.0 0.00 0.00 0.00 57 1016.0
20260903131004 89 294 5.0 13.0 0.00 0.00 0.00 57 1016.0
20260903130904 89 295 5.0 13.0 0.00 0.00 0.00 57 1015.9
20260903130804 89 295 5.0 12.0 0.00 0.00 0.00 56 1016.0
20260903130704 89 296 5.0 12.0 0.00 0.00 0.00 57 1016.0
20260903130604 89 293 5.0 12.0 0.00 0.00 0.00 57 1015.9
20260903130504 89 295 5.0 11.0 0.00 0.00 0.00 57 1015.9
20260903130404 89 296 5.0 11.0 0.00 0.00 0.00 57 1016.0
20260903130304 89 296 5.0 11.0 0.00 0.00 0.00 57 1016.0
20260903130204 89 296 5.0 11.0 0.00 0.00 0.00 57 1016.0
20260903130104 89 296 5.0 11.0 0.00 0.00 0.00 57 1016.0
20260903130004 89 296 5.0 11.0 0.00 0.00 0.00 56 1016.0
20260903125904 89 297 5.0 11.0 0.00 0.00 0.00 56 1016.1
20260903125804 89 297 5.0 11.0 0.00 0.00 0.00 57 1016.1
20260903125704 89 296 5.0 11.0 0.00 0.00 0.00 57 1016.1
20260903125604 89 298 5.0 11.0 0.00 0.00 0.00 56 1016.1
20260903125503 89 298 5.0 11.0 0.00 0.00 0.00 56 1016.0
20260903125404 89 297 4.0 11.0 0.00 0.00 0.00 56 1016.0
20260903125305 89 297 4.0 11.0 0.00 0.00 0.00 55 1016.0
20260903125203 89 297 5.0 11.0 0.00 0.00 0.00 55 1016.0
20260903125103 89 297 4.0 11.0 0.00 0.00 0.00 56 1016.1
20260903125004 89 297 4.0 11.0 0.00 0.00 0.00 56 1016.0
20260903124904 89 299 4.0 13.0 0.00 0.00 0.00 55 1016.0
20260903124803 89 301 5.0 14.0 0.00 0.00 0.00 55 1016.1
20260903124704 89 300 5.0 14.0 0.00 0.00 0.00 55 1015.9
20260903124603 89 300 5.0 14.0 0.00 0.00 0.00 54 1015.9
20260903124503 89 300 5.0 14.0 0.00 0.00 0.00 54 1015.9
20260903124403 89 300 5.0 14.0 0.00 0.00 0.00 54 1015.9
20260903124303 89 300 5.0 14.0 0.00 0.00 0.00 55 1015.9
20260903124204 89 301 5.0 14.0 0.00 0.00 0.00 55 1016.0
20260903124103 89 302 5.0 14.0 0.00 0.00 0.00 55 1015.9
20260903124004 89 302 5.0 14.0 0.00 0.00 0.00 54 1015.9
20260903123903 89 299 4.0 14.0 0.00 0.00 0.00 55 1016.0
20260903123803 89 298 4.0 10.0 0.00 0.00 0.00 56 1016.0
20260903123703 89 299 4.0 10.0 0.00 0.00 0.00 56 1015.9
20260903123603 89 297 4.0 10.0 0.00 0.00 0.00 56 1015.9
20260903123504 89 298 4.0 10.0 0.00 0.00 0.00 55 1016.0
20260903123403 89 298 4.0 10.0 0.00 0.00 0.00 55 1016.0
20260903123303 89 299 4.0 10.0 0.00 0.00 0.00 55 1016.0
20260903123203 89 299 5.0 10.0 0.00 0.00 0.00 55 1016.0
20260903123103 89 298 5.0 12.0 0.00 0.00 0.00 55 1015.9
20260903123003 89 298 5.0 12.0 0.00 0.00 0.00 55 1016.0
20260903122903 89 298 5.0 12.0 0.00 0.00 0.00 55 1016.0
20260903122803 89 297 6.0 15.0 0.00 0.00 0.00 56 1016.0
20260903122703 89 297 6.0 15.0 0.00 0.00 0.00 55 1016.0
20260903122603 89 298 6.0 15.0 0.00 0.00 0.00 54 1016.1
20260903122503 88 299 7.0 15.0 0.00 0.00 0.00 54 1016.0
20260903122403 89 299 7.0 15.0 0.00 0.00 0.00 53 1016.1
20260903122305 89 298 7.0 15.0 0.00 0.00 0.00 53 1016.0
20260903122203 89 299 7.0 15.0 0.00 0.00 0.00 53 1016.0
20260903122103 89 299 6.0 15.0 0.00 0.00 0.00 53 1015.9
20260903122003 89 299 6.0 15.0 0.00 0.00 0.00 53 1016.0
20260903121903 89 300 6.0 15.0 0.00 0.00 0.00 53 1016.0
20260903121803 89 300 6.0 14.0 0.00 0.00 0.00 53 1015.9
20260903121703 89 301 5.0 13.0 0.00 0.00 0.00 53 1016.0
20260903121603 89 300 5.0 13.0 0.00 0.00 0.00 53 1016.0
20260903121503 89 298 5.0 13.0 0.00 0.00 0.00 54 1016.0
20260903121403 89 298 4.0 11.0 0.00 0.00 0.00 54 1016.1
20260903121303 89 298 5.0 11.0 0.00 0.00 0.00 54 1016.0
20260903121203 89 296 5.0 11.0 0.00 0.00 0.00 54 1016.0
20260903121103 89 296 5.0 11.0 0.00 0.00 0.00 54 1016.1
20260903121003 88 296 5.0 11.0 0.00 0.00 0.00 55 1016.1
20260903120903 88 293 4.0 10.0 0.00 0.00 0.00 56 1016.1
20260903120803 88 295 5.0 10.0 0.00 0.00 0.00 56 1016.0
20260903120703 88 295 5.0 17.0 0.00 0.00 0.00 56 1015.9
20260903120603 88 297 6.0 17.0 0.00 0.00 0.00 55 1016.0
20260903120503 88 297 6.0 17.0 0.00 0.00 0.00 55 1016.0
20260903120403 88 298 6.0 17.0 0.00 0.00 0.00 55 1015.9
20260903120303 88 299 7.0 17.0 0.00 0.00 0.00 55 1015.9
20260903120203 88 300 7.0 17.0 0.00 0.00 0.00 56 1016.0
20260903120003 88 301 7.0 17.0 0.00 0.00 0.00 55 1016.0
20260903115903 88 302 8.0 17.0 0.00 0.00 0.00 55 1016.0
20260903115803 88 302 7.0 17.0 0.00 0.00 0.00 55 1016.1
20260903115703 88 301 7.0 14.0 0.00 0.00 0.00 54 1016.2
20260903115603 88 300 7.0 14.0 0.00 0.00 0.00 53 1016.2
20260903115503 88 301 6.0 14.0 0.00 0.00 0.00 53 1016.2
20260903115403 88 300 6.0 14.0 0.00 0.00 0.00 54 1016.0
20260903115305 88 300 6.0 14.0 0.00 0.00 0.00 55 1015.9
20260903115203 88 300 5.0 14.0 0.00 0.00 0.00 55 1016.0
20260903115103 88 299 6.0 14.0 0.00 0.00 0.00 55 1016.0
20260903115003 88 298 6.0 14.0 0.00 0.00 0.00 54 1015.9
20260903114903 88 297 6.0 14.0 0.00 0.00 0.00 54 1016.0
20260903114803 88 297 6.0 14.0 0.00 0.00 0.00 54 1016.1
20260903114703 88 299 6.0 14.0 0.00 0.00 0.00 54 1016.1
20260903114603 88 299 5.0 14.0 0.00 0.00 0.00 54 1016.1
20260903114503 88 300 6.0 14.0 0.00 0.00 0.00 54 1016.2
20260903114403 88 301 5.0 14.0 0.00 0.00 0.00 54 1016.2
20260903114303 88 301 6.0 14.0 0.00 0.00 0.00 54 1016.2
20260903114203 88 301 6.0 14.0 0.00 0.00 0.00 54 1016.2
20260903114103 88 299 5.0 11.0 0.00 0.00 0.00 54 1016.2
20260903113903 88 300 5.0 11.0 0.00 0.00 0.00 55 1016.1
20260903113703 88 299 5.0 11.0 0.00 0.00 0.00 54 1016.1
20260903113603 88 298 5.0 11.0 0.00 0.00 0.00 54 1016.1
20260903113503 88 299 5.0 11.0 0.00 0.00 0.00 54 1016.2
20260903113403 88 299 5.0 11.0 0.00 0.00 0.00 54 1016.1
20260903113303 88 299 5.0 11.0 0.00 0.00 0.00 54 1016.2
20260903113203 88 298 5.0 11.0 0.00 0.00 0.00 55 1016.3
20260903113103 88 301 4.0 11.0 0.00 0.00 0.00 54 1016.3
20260903112903 88 303 4.0 10.0 0.00 0.00 0.00 54 1016.2
20260903112803 88 303 4.0 10.0 0.00 0.00 0.00 55 1016.3
20260903112703 88 301 4.0 10.0 0.00 0.00 0.00 55 1016.3
20260903112603 88 301 4.0 10.0 0.00 0.00 0.00 55 1016.2
20260903112503 88 299 4.0 11.0 0.00 0.00 0.00 54 1016.2
20260903112403 88 299 4.0 11.0 0.00 0.00 0.00 54 1016.3
20260903112305 88 298 5.0 11.0 0.00 0.00 0.00 54 1016.3
20260903112203 88 297 4.0 11.0 0.00 0.00 0.00 54 1016.3
20260903112103 88 297 4.0 11.0 0.00 0.00 0.00 54 1016.2
20260903112003 88 295 5.0 15.0 0.00 0.00 0.00 54 1016.3
20260903111904 88 294 6.0 15.0 0.00 0.00 0.00 55 1016.3
20260903111804 88 294 5.0 15.0 0.00 0.00 0.00 55 1016.3
20260903111704 88 294 5.0 15.0 0.00 0.00 0.00 55 1016.3
20260903111604 88 294 5.0 15.0 0.00 0.00 0.00 54 1016.4
20260903111504 88 294 5.0 15.0 0.00 0.00 0.00 54 1016.3
20260903111404 88 292 5.0 15.0 0.00 0.00 0.00 55 1016.4
20260903111304 88 293 5.0 15.0 0.00 0.00 0.00 55 1016.3
20260903111204 88 292 6.0 15.0 0.00 0.00 0.00 55 1016.4
20260903111104 88 293 5.0 15.0 0.00 0.00 0.00 55 1016.4
20260903111004 89 292 5.0 13.0 0.00 0.00 0.00 56 1016.4
20260903110904 88 291 5.0 12.0 0.00 0.00 0.00 55 1016.3
20260903110804 89 295 5.0 12.0 0.00 0.00 0.00 55 1016.4
20260903110704 89 294 4.0 12.0 0.00 0.00 0.00 54 1016.4
20260903110604 89 294 4.0 12.0 0.00 0.00 0.00 54 1016.3
20260903110504 89 294 4.0 12.0 0.00 0.00 0.00 53 1016.5
20260903110404 89 295 3.0 10.0 0.00 0.00 0.00 52 1016.4
20260903110304 89 295 3.0 10.0 0.00 0.00 0.00 53 1016.3
20260903110204 89 296 3.0 10.0 0.00 0.00 0.00 53 1016.3
20260903110104 89 294 3.0 11.0 0.00 0.00 0.00 54 1016.3
20260903110004 89 297 3.0 11.0 0.00 0.00 0.00 54 1016.3
20260903105904 89 298 4.0 11.0 0.00 0.00 0.00 54 1016.3
20260903105804 88 295 4.0 11.0 0.00 0.00 0.00 54 1016.3
20260903105704 88 296 4.0 11.0 0.00 0.00 0.00 54 1016.3
20260903105604 88 296 4.0 11.0 0.00 0.00 0.00 54 1016.3
20260903105504 88 296 5.0 11.0 0.00 0.00 0.00 54 1016.4
20260903105404 88 296 5.0 11.0 0.00 0.00 0.00 54 1016.4
20260903105306 88 296 5.0 11.0 0.00 0.00 0.00 54 1016.4
20260903105204 88 297 5.0 11.0 0.00 0.00 0.00 53 1016.4
20260903105104 88 298 5.0 12.0 0.00 0.00 0.00 53 1016.4
20260903105005 88 298 5.0 12.0 0.00 0.00 0.00 53 1016.4
20260903104904 88 298 5.0 12.0 0.00 0.00 0.00 54 1016.4
20260903104806 88 298 5.0 12.0 0.00 0.00 0.00 54 1016.5
20260903104704 88 298 5.0 12.0 0.00 0.00 0.00 54 1016.5
20260903104604 88 298 5.0 12.0 0.00 0.00 0.00 55 1016.4
20260903104504 88 297 5.0 12.0 0.00 0.00 0.00 54 1016.4
20260903104404 88 299 5.0 12.0 0.00 0.00 0.00 54 1016.4
20260903104304 88 298 5.0 12.0 0.00 0.00 0.00 54 1016.4
20260903104204 88 298 5.0 13.0 0.00 0.00 0.00 54 1016.5
20260903104104 88 296 5.0 13.0 0.00 0.00 0.00 55 1016.5
20260903104004 88 298 5.0 13.0 0.00 0.00 0.00 55 1016.4
20260903103904 88 298 5.0 13.0 0.00 0.00 0.00 54 1016.4
20260903103804 88 297 5.0 13.0 0.00 0.00 0.00 55 1016.5
20260903103704 88 298 5.0 13.0 0.00 0.00 0.00 55 1016.5
20260903103604 88 297 5.0 13.0 0.00 0.00 0.00 55 1016.4
20260903103504 88 297 5.0 13.0 0.00 0.00 0.00 55 1016.4
20260903103404 88 295 5.0 13.0 0.00 0.00 0.00 55 1016.5
20260903103304 88 295 5.0 13.0 0.00 0.00 0.00 55 1016.5
20260903103204 88 296 5.0 11.0 0.00 0.00 0.00 55 1016.5
20260903103104 88 295 6.0 12.0 0.00 0.00 0.00 55 1016.5
20260903103004 88 294 6.0 12.0 0.00 0.00 0.00 55 1016.5
20260903102904 88 294 5.0 12.0 0.00 0.00 0.00 55 1016.6
20260903102804 88 294 5.0 12.0 0.00 0.00 0.00 56 1016.6
20260903102703 88 294 5.0 12.0 0.00 0.00 0.00 56 1016.6
20260903102603 88 294 5.0 12.0 0.00 0.00 0.00 56 1016.6
20260903102504 88 295 5.0 12.0 0.00 0.00 0.00 56 1016.5
20260903102404 88 295 5.0 12.0 0.00 0.00 0.00 56 1016.6
20260903102305 88 296 5.0 12.0 0.00 0.00 0.00 56 1016.7
20260903102204 88 296 5.0 12.0 0.00 0.00 0.00 56 1016.7
20260903102103 88 297 5.0 12.0 0.00 0.00 0.00 56 1016.6
20260903102003 88 297 5.0 12.0 0.00 0.00 0.00 56 1016.5
20260903101903 88 298 5.0 12.0 0.00 0.00 0.00 56 1016.5
20260903101803 88 299 5.0 12.0 0.00 0.00 0.00 56 1016.6
20260903101703 88 299 5.0 12.0 0.00 0.00 0.00 56 1016.6
20260903101603 88 300 5.0 12.0 0.00 0.00 0.00 56 1016.5
20260903101504 88 299 4.0 12.0 0.00 0.00 0.00 56 1016.6
20260903101403 88 298 4.0 12.0 0.00 0.00 0.00 56 1016.6
20260903101303 88 299 5.0 12.0 0.00 0.00 0.00 56 1016.6
20260903101203 88 299 4.0 12.0 0.00 0.00 0.00 56 1016.6
20260903101103 88 298 4.0 12.0 0.00 0.00 0.00 57 1016.6
20260903101003 88 299 4.0 12.0 0.00 0.00 0.00 57 1016.6
20260903100903 88 297 4.0 12.0 0.00 0.00 0.00 57 1016.6
20260903100803 88 298 4.0 12.0 0.00 0.00 0.00 57 1016.7
20260903100703 88 300 4.0 12.0 0.00 0.00 0.00 58 1016.6
20260903100603 88 299 5.0 12.0 0.00 0.00 0.00 58 1016.6
20260903100503 88 298 6.0 12.0 0.00 0.00 0.00 57 1016.6
20260903100403 88 300 6.0 12.0 0.00 0.00 0.00 57 1016.6
20260903100303 88 299 6.0 14.0 0.00 0.00 0.00 57 1016.7
20260903100203 88 300 6.0 14.0 0.00 0.00 0.00 57 1016.6
20260903100103 88 300 7.0 14.0 0.00 0.00 0.00 56 1016.7
20260903100003 88 300 7.0 14.0 0.00 0.00 0.00 56 1016.8
20260903095903 88 301 6.0 14.0 0.00 0.00 0.00 57 1016.8
20260903095803 88 299 6.0 14.0 0.00 0.00 0.00 57 1016.7
20260903095703 88 299 6.0 14.0 0.00 0.00 0.00 57 1016.8
20260903095603 88 300 6.0 14.0 0.00 0.00 0.00 56 1016.9
20260903095503 88 302 5.0 14.0 0.00 0.00 0.00 56 1016.9
20260903095403 88 301 5.0 14.0 0.00 0.00 0.00 56 1016.9
20260903095306 88 300 5.0 14.0 0.00 0.00 0.00 56 1016.9
20260903095203 88 300 4.0 10.0 0.00 0.00 0.00 56 1016.9
20260903095103 88 300 4.0 10.0 0.00 0.00 0.00 56 1016.9
20260903095003 88 299 4.0 10.0 0.00 0.00 0.00 56 1016.8
20260903094903 88 299 4.0 10.0 0.00 0.00 0.00 56 1016.8
20260903094803 88 299 4.0 10.0 0.00 0.00 0.00 56 1016.9
20260903094703 88 298 3.0 10.0 0.00 0.00 0.00 57 1016.9
20260903094603 88 298 3.0 10.0 0.00 0.00 0.00 58 1017.0
20260903094503 88 296 3.0 10.0 0.00 0.00 0.00 58 1017.0
20260903094403 88 297 3.0 10.0 0.00 0.00 0.00 58 1016.9
20260903094303 88 298 4.0 13.0 0.00 0.00 0.00 58 1016.9
20260903094203 88 297 4.0 13.0 0.00 0.00 0.00 58 1016.9
20260903094103 87 298 4.0 13.0 0.00 0.00 0.00 58 1016.9
20260903094003 87 299 5.0 13.0 0.00 0.00 0.00 58 1016.7
20260903093903 87 299 5.0 13.0 0.00 0.00 0.00 58 1016.8
20260903093803 87 299 6.0 13.0 0.00 0.00 0.00 58 1016.9
20260903093703 87 299 6.0 13.0 0.00 0.00 0.00 58 1016.9
20260903093603 87 299 6.0 13.0 0.00 0.00 0.00 58 1017.0
20260903093503 87 300 6.0 13.0 0.00 0.00 0.00 58 1016.9
20260903093403 87 301 7.0 13.0 0.00 0.00 0.00 58 1017.0
20260903093303 87 300 7.0 13.0 0.00 0.00 0.00 58 1016.9
20260903093203 87 301 6.0 13.0 0.00 0.00 0.00 58 1016.8
20260903093103 87 301 6.0 12.0 0.00 0.00 0.00 58 1016.8
20260903093003 87 301 6.0 12.0 0.00 0.00 0.00 58 1016.9
20260903092903 87 299 6.0 13.0 0.00 0.00 0.00 58 1016.8
20260903092803 87 300 6.0 13.0 0.00 0.00 0.00 59 1016.8
20260903092703 87 297 6.0 13.0 0.00 0.00 0.00 59 1016.8
20260903092603 87 300 6.0 13.0 0.00 0.00 0.00 58 1016.9
20260903092503 87 298 6.0 13.0 0.00 0.00 0.00 58 1016.9
20260903092403 87 297 6.0 13.0 0.00 0.00 0.00 58 1016.9
20260903092306 87 298 6.0 13.0 0.00 0.00 0.00 58 1016.9
20260903092203 87 295 7.0 13.0 0.00 0.00 0.00 57 1016.9
20260903092103 87 294 6.0 13.0 0.00 0.00 0.00 57 1016.9
20260903092003 88 293 6.0 13.0 0.00 0.00 0.00 57 1016.9
20260903091903 88 295 6.0 13.0 0.00 0.00 0.00 57 1016.9
20260903091803 88 295 6.0 13.0 0.00 0.00 0.00 57 1016.9
20260903091703 88 299 5.0 13.0 0.00 0.00 0.00 56 1016.9
20260903091603 88 296 5.0 13.0 0.00 0.00 0.00 57 1017.0
20260903091503 88 298 5.0 13.0 0.00 0.00 0.00 57 1016.9
20260903091403 88 299 5.0 13.0 0.00 0.00 0.00 57 1016.9
20260903091303 88 299 4.0 13.0 0.00 0.00 0.00 58 1016.9
20260903091203 88 303 4.0 8.0 0.00 0.00 0.00 58 1016.8
20260903091103 88 305 4.0 8.0 0.00 0.00 0.00 58 1016.9
20260903091003 88 304 3.0 8.0 0.00 0.00 0.00 58 1016.9
20260903090903 88 305 3.0 8.0 0.00 0.00 0.00 58 1016.9
20260903090803 88 304 3.0 8.0 0.00 0.00 0.00 58 1016.8
20260903090703 88 302 3.0 8.0 0.00 0.00 0.00 59 1016.9
20260903090603 88 302 3.0 8.0 0.00 0.00 0.00 59 1016.9
20260903090503 88 301 3.0 8.0 0.00 0.00 0.00 59 1016.9
20260903090403 88 298 3.0 8.0 0.00 0.00 0.00 59 1016.9
20260903090303 88 297 2.0 7.0 0.00 0.00 0.00 59 1016.9
20260903090203 88 296 2.0 9.0 0.00 0.00 0.00 59 1016.9
20260903090003 87 298 3.0 9.0 0.00 0.00 0.00 60 1017.0
20260903085903 87 297 3.0 9.0 0.00 0.00 0.00 60 1016.9
20260903085803 87 297 3.0 9.0 0.00 0.00 0.00 60 1016.9
20260903085703 87 297 2.0 9.0 0.00 0.00 0.00 60 1016.9
20260903085603 87 297 2.0 9.0 0.00 0.00 0.00 60 1016.9
20260903085503 87 296 2.0 9.0 0.00 0.00 0.00 60 1016.9
20260903085404 87 297 2.0 9.0 0.00 0.00 0.00 60 1016.9
20260903085306 87 296 3.0 9.0 0.00 0.00 0.00 60 1016.9
20260903085204 87 296 3.0 7.0 0.00 0.00 0.00 60 1017.0
20260903085104 87 295 3.0 8.0 0.00 0.00 0.00 60 1017.0
20260903085004 87 293 3.0 8.0 0.00 0.00 0.00 60 1017.0
20260903084904 87 293 2.0 8.0 0.00 0.00 0.00 61 1016.9
20260903084804 87 294 2.0 8.0 0.00 0.00 0.00 61 1016.9
20260903084704 87 294 3.0 8.0 0.00 0.00 0.00 61 1016.9
20260903084604 87 295 3.0 8.0 0.00 0.00 0.00 60 1016.9
20260903084504 87 296 3.0 8.0 0.00 0.00 0.00 60 1017.0
20260903084404 87 295 3.0 10.0 0.00 0.00 0.00 61 1016.9
20260903084304 87 296 4.0 10.0 0.00 0.00 0.00 61 1016.9
20260903084204 87 296 3.0 10.0 0.00 0.00 0.00 60 1016.9
20260903084104 87 297 3.0 10.0 0.00 0.00 0.00 61 1016.8
20260903084004 87 298 3.0 10.0 0.00 0.00 0.00 61 1016.8
20260903083904 87 299 3.0 10.0 0.00 0.00 0.00 61 1016.9
20260903083804 87 299 3.0 10.0 0.00 0.00 0.00 61 1017.0
20260903083704 87 299 4.0 10.0 0.00 0.00 0.00 60 1017.0
20260903083604 87 299 4.0 10.0 0.00 0.00 0.00 60 1016.9
20260903083504 87 298 4.0 10.0 0.00 0.00 0.00 60 1016.8
20260903083404 87 299 3.0 9.0 0.00 0.00 0.00 61 1016.9
20260903083304 87 300 3.0 8.0 0.00 0.00 0.00 61 1016.8
20260903083204 87 299 3.0 8.0 0.00 0.00 0.00 61 1016.8
20260903083104 87 301 3.0 8.0 0.00 0.00 0.00 61 1016.8
20260903083004 87 300 3.0 8.0 0.00 0.00 0.00 61 1016.8
20260903082904 87 300 3.0 8.0 0.00 0.00 0.00 61 1016.9
20260903082804 87 299 3.0 8.0 0.00 0.00 0.00 61 1016.9
20260903082704 87 298 3.0 8.0 0.00 0.00 0.00 61 1016.9
20260903082604 87 298 3.0 8.0 0.00 0.00 0.00 61 1016.9
20260903082504 87 298 3.0 8.0 0.00 0.00 0.00 61 1016.9
20260903082404 87 299 2.0 8.0 0.00 0.00 0.00 61 1016.9
20260903082306 87 298 3.0 12.0 0.00 0.00 0.00 61 1016.9
20260903082204 87 296 3.0 12.0 0.00 0.00 0.00 61 1016.9
20260903082104 87 296 3.0 12.0 0.00 0.00 0.00 61 1016.9
20260903082004 87 295 3.0 12.0 0.00 0.00 0.00 61 1016.8
20260903081904 87 295 3.0 12.0 0.00 0.00 0.00 61 1016.8
20260903081804 87 294 2.0 12.0 0.00 0.00 0.00 61 1016.9
20260903081704 87 297 2.0 12.0 0.00 0.00 0.00 61 1016.8
20260903081604 87 297 3.0 12.0 0.00 0.00 0.00 61 1016.8
20260903081504 87 296 3.0 12.0 0.00 0.00 0.00 61 1016.9
20260903081403 87 295 3.0 12.0 0.00 0.00 0.00 61 1016.9
20260903081304 87 296 3.0 8.0 0.00 0.00 0.00 61 1016.9
20260903081203 87 298 3.0 9.0 0.00 0.00 0.00 61 1016.9
20260903081104 87 298 3.0 9.0 0.00 0.00 0.00 61 1016.8
20260903081003 87 298 3.0 9.0 0.00 0.00 0.00 61 1016.9
20260903080903 87 297 3.0 9.0 0.00 0.00 0.00 61 1016.9
20260903080803 87 298 4.0 9.0 0.00 0.00 0.00 61 1016.8
20260903080703 87 296 4.0 9.0 0.00 0.00 0.00 61 1016.8
20260903080603 87 297 3.0 9.0 0.00 0.00 0.00 62 1016.8
20260903080503 87 299 4.0 9.0 0.00 0.00 0.00 62 1016.8
20260903080403 87 298 3.0 9.0 0.00 0.00 0.00 62 1016.9
20260903080304 87 298 3.0 9.0 0.00 0.00 0.00 62 1016.8
20260903080203 87 296 3.0 9.0 0.00 0.00 0.00 62 1016.9
20260903080104 87 296 3.0 9.0 0.00 0.00 0.00 62 1016.9
20260903080004 87 297 4.0 9.0 0.00 0.00 0.00 62 1016.8
20260903075904 87 297 4.0 8.0 0.00 0.00 0.00 62 1016.8
20260903075803 87 297 4.0 9.0 0.00 0.00 0.00 62 1016.8
20260903075704 87 298 4.0 9.0 0.00 0.00 0.00 62 1016.8
20260903075603 87 298 4.0 9.0 0.00 0.00 0.00 62 1016.8
20260903075504 87 298 4.0 13.0 0.00 0.00 0.00 62 1016.9
20260903075403 87 298 5.0 15.0 0.00 0.00 0.00 62 1016.8
20260903075306 87 299 5.0 15.0 0.00 0.00 0.00 62 1016.8
20260903075203 87 300 4.0 15.0 0.00 0.00 0.00 62 1016.8
20260903075104 87 300 4.0 15.0 0.00 0.00 0.00 63 1016.8
20260903075003 87 299 4.0 15.0 0.00 0.00 0.00 62 1016.7
20260903074903 87 300 4.0 15.0 0.00 0.00 0.00 63 1016.7
20260903074803 87 299 4.0 15.0 0.00 0.00 0.00 63 1016.7
20260903074703 87 300 4.0 15.0 0.00 0.00 0.00 62 1016.6
20260903074603 87 299 4.0 15.0 0.00 0.00 0.00 62 1016.7
20260903074503 87 300 4.0 15.0 0.00 0.00 0.00 62 1016.6
20260903074403 87 301 4.0 11.0 0.00 0.00 0.00 62 1016.6
20260903074303 87 298 4.0 11.0 0.00 0.00 0.00 62 1016.6
20260903074203 87 298 4.0 11.0 0.00 0.00 0.00 62 1016.6
20260903074103 87 298 4.0 11.0 0.00 0.00 0.00 62 1016.6
20260903074003 87 299 4.0 11.0 0.00 0.00 0.00 62 1016.6
20260903073903 87 299 4.0 11.0 0.00 0.00 0.00 62 1016.7
20260903073803 87 299 4.0 11.0 0.00 0.00 0.00 62 1016.7
20260903073703 87 297 3.0 10.0 0.00 0.00 0.00 62 1016.7
20260903073603 87 298 3.0 10.0 0.00 0.00 0.00 62 1016.6
20260903073503 87 297 3.0 10.0 0.00 0.00 0.00 62 1016.7
20260903073403 87 296 3.0 10.0 0.00 0.00 0.00 62 1016.7
20260903073303 87 300 3.0 10.0 0.00 0.00 0.00 62 1016.7
20260903073203 87 301 3.0 9.0 0.00 0.00 0.00 62 1016.6
20260903073103 87 304 3.0 9.0 0.00 0.00 0.00 63 1016.6
20260903073003 87 304 3.0 9.0 0.00 0.00 0.00 62 1016.7
20260903072903 87 303 3.0 9.0 0.00 0.00 0.00 62 1016.7
20260903072803 87 302 3.0 9.0 0.00 0.00 0.00 62 1016.7
20260903072703 87 302 4.0 9.0 0.00 0.00 0.00 62 1016.6
20260903072603 87 301 4.0 9.0 0.00 0.00 0.00 62 1016.7
20260903072503 87 300 4.0 9.0 0.00 0.00 0.00 62 1016.7
20260903072403 87 301 4.0 8.0 0.00 0.00 0.00 62 1016.6
20260903072306 87 299 4.0 8.0 0.00 0.00 0.00 62 1016.7
20260903072203 88 299 4.0 8.0 0.00 0.00 0.00 62 1016.8
20260903072103 87 297 4.0 8.0 0.00 0.00 0.00 63 1016.7
20260903072003 88 298 4.0 8.0 0.00 0.00 0.00 62 1016.7
20260903071903 88 298 4.0 9.0 0.00 0.00 0.00 63 1016.8
20260903071803 88 299 4.0 9.0 0.00 0.00 0.00 62 1016.7
20260903071703 88 300 4.0 9.0 0.00 0.00 0.00 63 1016.7
20260903071603 88 301 4.0 9.0 0.00 0.00 0.00 63 1016.8
20260903071503 88 300 3.0 9.0 0.00 0.00 0.00 63 1016.8
20260903071403 88 301 3.0 9.0 0.00 0.00 0.00 63 1016.8
20260903071303 88 301 3.0 9.0 0.00 0.00 0.00 63 1016.8
20260903071203 88 302 3.0 9.0 0.00 0.00 0.00 63 1016.7
20260903071103 88 303 2.0 9.0 0.00 0.00 0.00 63 1016.6
20260903071003 88 303 2.0 9.0 0.00 0.00 0.00 63 1016.6
20260903070903 88 303 2.0 7.0 0.00 0.00 0.00 63 1016.5
20260903070803 88 303 2.0 7.0 0.00 0.00 0.00 63 1016.6
20260903070703 88 301 2.0 7.0 0.00 0.00 0.00 64 1016.5
20260903070603 88 299 2.0 7.0 0.00 0.00 0.00 64 1016.4
20260903070503 88 301 1.0 6.0 0.00 0.00 0.00 64 1016.5
20260903070403 88 301 2.0 6.0 0.00 0.00 0.00 64 1016.5
20260903070303 87 300 2.0 10.0 0.00 0.00 0.00 64 1016.5
20260903070203 87 299 3.0 10.0 0.00 0.00 0.00 64 1016.5
20260903070103 87 299 3.0 10.0 0.00 0.00 0.00 64 1016.4
20260903070003 87 299 3.0 10.0 0.00 0.00 0.00 65 1016.4
20260903065903 87 299 3.0 10.0 0.00 0.00 0.00 64 1016.5
20260903065803 87 298 3.0 10.0 0.00 0.00 0.00 64 1016.5
20260903065703 87 298 3.0 10.0 0.00 0.00 0.00 64 1016.5
20260903065603 87 297 4.0 10.0 0.00 0.00 0.00 64 1016.5
20260903065503 87 297 4.0 10.0 0.00 0.00 0.00 64 1016.4
20260903065403 87 297 4.0 10.0 0.00 0.00 0.00 64 1016.5
20260903065306 87 296 3.0 8.0 0.00 0.00 0.00 64 1016.5
20260903065203 87 296 3.0 8.0 0.00 0.00 0.00 64 1016.5
20260903065103 87 297 3.0 7.0 0.00 0.00 0.00 64 1016.5
20260903065003 87 295 3.0 7.0 0.00 0.00 0.00 64 1016.5
20260903064903 87 296 2.0 7.0 0.00 0.00 0.00 65 1016.5
20260903064803 87 296 2.0 7.0 0.00 0.00 0.00 65 1016.5
20260903064703 87 296 2.0 7.0 0.00 0.00 0.00 65 1016.5
20260903064603 87 299 2.0 6.0 0.00 0.00 0.00 65 1016.6
20260903064503 87 298 2.0 6.0 0.00 0.00 0.00 65 1016.6
20260903064403 87 297 2.0 6.0 0.00 0.00 0.00 66 1016.6
20260903064303 87 298 2.0 6.0 0.00 0.00 0.00 66 1016.5
20260903064203 87 298 3.0 6.0 0.00 0.00 0.00 66 1016.5
20260903064103 87 296 3.0 6.0 0.00 0.00 0.00 66 1016.5
20260903064003 87 296 3.0 8.0 0.00 0.00 0.00 65 1016.5
20260903063903 87 295 3.0 8.0 0.00 0.00 0.00 66 1016.5
20260903063803 87 295 3.0 8.0 0.00 0.00 0.00 66 1016.5
20260903063703 87 296 3.0 8.0 0.00 0.00 0.00 66 1016.6
20260903063603 87 296 3.0 8.0 0.00 0.00 0.00 66 1016.5
20260903063503 87 297 3.0 8.0 0.00 0.00 0.00 66 1016.6
20260903063403 87 297 3.0 8.0 0.00 0.00 0.00 67 1016.6
20260903063303 87 296 3.0 8.0 0.00 0.00 0.00 67 1016.6
20260903063203 87 296 2.0 8.0 0.00 0.00 0.00 67 1016.7
20260903063103 87 296 2.0 8.0 0.00 0.00 0.00 67 1016.6
20260903063003 87 297 2.0 7.0 0.00 0.00 0.00 68 1016.6
20260903062903 86 296 2.0 6.0 0.00 0.00 0.00 68 1016.6
20260903062803 86 296 2.0 6.0 0.00 0.00 0.00 68 1016.6
20260903062704 86 294 2.0 6.0 0.00 0.00 0.00 68 1016.6
20260903062604 86 293 2.0 6.0 0.00 0.00 0.00 68 1016.6
20260903062504 86 292 2.0 5.0 0.00 0.00 0.00 69 1016.7
20260903062404 85 292 1.0 5.0 0.00 0.00 0.00 70 1016.7
20260903062306 85 294 2.0 5.0 0.00 0.00 0.00 70 1016.8
20260903062204 85 293 2.0 6.0 0.00 0.00 0.00 70 1016.9
20260903062104 85 295 2.0 8.0 0.00 0.00 0.00 71 1016.8
20260903062004 84 297 3.0 8.0 0.00 0.00 0.00 71 1016.8
20260903061904 84 298 3.0 8.0 0.00 0.00 0.00 71 1016.8
20260903061804 84 299 3.0 8.0 0.00 0.00 0.00 72 1016.7
20260903061704 84 298 3.0 8.0 0.00 0.00 0.00 72 1016.8
20260903061604 84 300 3.0 8.0 0.00 0.00 0.00 72 1016.8
20260903061504 83 300 3.0 8.0 0.00 0.00 0.00 72 1016.8
20260903061404 83 300 3.0 8.0 0.00 0.00 0.00 72 1016.8
20260903061304 83 300 3.0 8.0 0.00 0.00 0.00 73 1016.9
20260903061204 83 301 3.0 8.0 0.00 0.00 0.00 73 1016.9
20260903061104 83 301 2.0 7.0 0.00 0.00 0.00 74 1016.8
20260903061004 82 300 2.0 7.0 0.00 0.00 0.00 74 1016.9
20260903060904 82 300 2.0 7.0 0.00 0.00 0.00 74 1016.9
20260903060804 82 301 2.0 7.0 0.00 0.00 0.00 74 1016.9
20260903060704 82 301 2.0 7.0 0.00 0.00 0.00 74 1016.9
20260903060604 82 300 2.0 7.0 0.00 0.00 0.00 74 1016.8
20260903060504 82 303 2.0 7.0 0.00 0.00 0.00 74 1016.9
20260903060404 81 301 2.0 7.0 0.00 0.00 0.00 74 1016.9
20260903060304 81 302 2.0 7.0 0.00 0.00 0.00 74 1016.9
20260903060204 81 302 2.0 7.0 0.00 0.00 0.00 74 1016.9
20260903060104 81 302 2.0 7.0 0.00 0.00 0.00 74 1016.8
20260903060004 81 303 2.0 7.0 0.00 0.00 0.00 74 1016.8
20260903055904 81 301 2.0 7.0 0.00 0.00 0.00 75 1016.9
20260903055804 81 300 1.0 5.0 0.00 0.00 0.00 75 1016.9
20260903055704 81 298 1.0 5.0 0.00 0.00 0.00 75 1016.9
20260903055604 81 300 2.0 5.0 0.00 0.00 0.00 75 1017.0
20260903055504 81 295 2.0 5.0 0.00 0.00 0.00 75 1017.0
20260903055404 81 295 1.0 5.0 0.00 0.00 0.00 75 1016.9
20260903055306 81 294 1.0 5.0 0.00 0.00 0.00 75 1016.9
20260903055203 81 294 1.0 5.0 0.00 0.00 0.00 75 1017.0
20260903055104 81 294 2.0 5.0 0.00 0.00 0.00 75 1017.0
20260903055004 81 295 2.0 5.0 0.00 0.00 0.00 75 1016.9
20260903054904 81 294 2.0 5.0 0.00 0.00 0.00 75 1016.9
20260903054804 81 296 2.0 5.0 0.00 0.00 0.00 75 1016.9
20260903054704 81 296 2.0 5.0 0.00 0.00 0.00 75 1016.9
20260903054603 81 295 1.0 5.0 0.00 0.00 0.00 75 1016.9
20260903054504 81 297 1.0 5.0 0.00 0.00 0.00 75 1016.9
20260903054404 81 297 1.0 5.0 0.00 0.00 0.00 75 1017.0
20260903054303 81 298 1.0 5.0 0.00 0.00 0.00 75 1016.9
20260903054203 81 298 1.0 5.0 0.00 0.00 0.00 75 1016.9
20260903054103 81 301 1.0 4.0 0.00 0.00 0.00 75 1016.9
20260903054003 81 303 1.0 4.0 0.00 0.00 0.00 75 1016.9
20260903053903 81 304 1.0 6.0 0.00 0.00 0.00 75 1017.0
20260903053804 81 301 1.0 6.0 0.00 0.00 0.00 76 1016.9
20260903053703 81 299 1.0 6.0 0.00 0.00 0.00 76 1016.9
20260903053603 81 298 1.0 6.0 0.00 0.00 0.00 76 1016.9
20260903053503 81 300 1.0 6.0 0.00 0.00 0.00 76 1016.9
20260903053403 81 299 2.0 6.0 0.00 0.00 0.00 76 1016.7
20260903053304 81 299 2.0 6.0 0.00 0.00 0.00 76 1016.8
20260903053203 81 298 2.0 6.0 0.00 0.00 0.00 76 1016.7
20260903053103 81 297 2.0 6.0 0.00 0.00 0.00 76 1016.8
20260903053003 81 297 2.0 6.0 0.00 0.00 0.00 76 1016.7
20260903052903 81 296 2.0 6.0 0.00 0.00 0.00 76 1016.7
20260903052803 80 296 1.0 6.0 0.00 0.00 0.00 76 1016.8
20260903052703 81 296 1.0 6.0 0.00 0.00 0.00 76 1016.8
20260903052603 81 297 1.0 6.0 0.00 0.00 0.00 76 1016.6
20260903052503 80 294 1.0 6.0 0.00 0.00 0.00 76 1016.7
20260903052403 81 295 1.0 5.0 0.00 0.00 0.00 76 1016.7
20260903052306 80 295 1.0 5.0 0.00 0.00 0.00 76 1016.7
20260903052203 80 295 1.0 5.0 0.00 0.00 0.00 76 1016.8
20260903052103 81 294 1.0 5.0 0.00 0.00 0.00 76 1016.7
20260903052003 80 293 1.0 5.0 0.00 0.00 0.00 76 1016.7
20260903051903 81 293 1.0 5.0 0.00 0.00 0.00 76 1016.7
20260903051803 80 293 1.0 5.0 0.00 0.00 0.00 76 1016.7
20260903051703 80 292 1.0 5.0 0.00 0.00 0.00 76 1016.7
20260903051603 80 292 1.0 6.0 0.00 0.00 0.00 76 1016.8
20260903051503 80 291 1.0 6.0 0.00 0.00 0.00 76 1016.7
20260903051403 80 292 1.0 6.0 0.00 0.00 0.00 76 1016.7
20260903051303 80 292 1.0 6.0 0.00 0.00 0.00 76 1016.7
20260903051203 80 292 1.0 6.0 0.00 0.00 0.00 76 1016.7
20260903051103 80 294 1.0 6.0 0.00 0.00 0.00 76 1016.6
20260903051003 80 295 1.0 6.0 0.00 0.00 0.00 76 1016.7
20260903050903 80 295 1.0 6.0 0.00 0.00 0.00 76 1016.6
20260903050803 80 296 1.0 6.0 0.00 0.00 0.00 76 1016.6
20260903050703 80 297 1.0 6.0 0.00 0.00 0.00 76 1016.6
20260903050603 80 298 1.0 6.0 0.00 0.00 0.00 76 1016.6
20260903050503 80 299 1.0 6.0 0.00 0.00 0.00 76 1016.6
20260903050403 80 299 1.0 6.0 0.00 0.00 0.00 76 1016.6
20260903050303 80 298 2.0 6.0 0.00 0.00 0.00 76 1016.7
20260903050203 80 298 2.0 6.0 0.00 0.00 0.00 76 1016.6
20260903050003 80 297 1.0 6.0 0.00 0.00 0.00 76 1016.6
20260903045903 80 298 2.0 6.0 0.00 0.00 0.00 76 1016.4
20260903045803 80 298 2.0 6.0 0.00 0.00 0.00 76 1016.4
20260903045703 80 298 2.0 6.0 0.00 0.00 0.00 76 1016.4
20260903045603 80 300 2.0 6.0 0.00 0.00 0.00 76 1016.4
20260903045503 80 300 2.0 6.0 0.00 0.00 0.00 76 1016.4
20260903045403 80 301 2.0 6.0 0.00 0.00 0.00 76 1016.4
20260903045306 80 302 2.0 6.0 0.00 0.00 0.00 76 1016.4
20260903045203 80 303 2.0 6.0 0.00 0.00 0.00 76 1016.5
20260903045103 80 302 2.0 7.0 0.00 0.00 0.00 76 1016.5
20260903045003 80 303 2.0 7.0 0.00 0.00 0.00 76 1016.4
20260903044903 80 304 2.0 7.0 0.00 0.00 0.00 76 1016.5
20260903044803 80 304 2.0 7.0 0.00 0.00 0.00 76 1016.5
20260903044703 80 303 2.0 7.0 0.00 0.00 0.00 76 1016.5
20260903044603 80 303 2.0 7.0 0.00 0.00 0.00 76 1016.7
20260903044503 80 303 2.0 7.0 0.00 0.00 0.00 76 1016.6
20260903044403 80 303 2.0 7.0 0.00 0.00 0.00 77 1016.7
20260903044303 80 302 2.0 7.0 0.00 0.00 0.00 76 1016.6
20260903044203 80 302 2.0 7.0 0.00 0.00 0.00 77 1016.6
20260903044103 80 302 1.0 6.0 0.00 0.00 0.00 76 1016.6
20260903044003 80 300 1.0 7.0 0.00 0.00 0.00 77 1016.5
20260903043903 80 299 2.0 7.0 0.00 0.00 0.00 77 1016.5
20260903043803 80 299 1.0 7.0 0.00 0.00 0.00 77 1016.5
20260903043703 80 299 2.0 7.0 0.00 0.00 0.00 77 1016.5
20260903043603 80 299 2.0 7.0 0.00 0.00 0.00 77 1016.5
20260903043503 80 299 2.0 7.0 0.00 0.00 0.00 77 1016.5
20260903043403 80 298 2.0 8.0 0.00 0.00 0.00 77 1016.5
20260903043303 80 299 2.0 9.0 0.00 0.00 0.00 77 1016.5
20260903043203 80 298 2.0 9.0 0.00 0.00 0.00 77 1016.5
20260903043103 80 298 2.0 9.0 0.00 0.00 0.00 77 1016.4
20260903043003 80 298 2.0 9.0 0.00 0.00 0.00 77 1016.4
20260903042903 80 296 2.0 9.0 0.00 0.00 0.00 76 1016.5
20260903042803 80 296 2.0 9.0 0.00 0.00 0.00 76 1016.5
20260903042703 80 295 2.0 9.0 0.00 0.00 0.00 76 1016.4
20260903042603 80 295 2.0 9.0 0.00 0.00 0.00 76 1016.5
20260903042503 80 296 2.0 9.0 0.00 0.00 0.00 76 1016.5
20260903042403 80 297 2.0 9.0 0.00 0.00 0.00 76 1016.5
20260903042306 80 296 1.0 6.0 0.00 0.00 0.00 76 1016.5
20260903042203 80 299 1.0 6.0 0.00 0.00 0.00 76 1016.5
20260903042103 80 299 1.0 6.0 0.00 0.00 0.00 76 1016.4
20260903042003 80 300 1.0 6.0 0.00 0.00 0.00 76 1016.4
20260903041903 80 301 1.0 6.0 0.00 0.00 0.00 76 1016.4
20260903041803 80 304 1.0 5.0 0.00 0.00 0.00 76 1016.5
20260903041703 80 304 1.0 5.0 0.00 0.00 0.00 76 1016.4
20260903041603 80 302 1.0 5.0 0.00 0.00 0.00 76 1016.4
20260903041503 80 301 1.0 6.0 0.00 0.00 0.00 76 1016.4
20260903041403 80 301 2.0 6.0 0.00 0.00 0.00 76 1016.4
20260903041303 80 300 2.0 6.0 0.00 0.00 0.00 76 1016.5
20260903041203 80 299 2.0 6.0 0.00 0.00 0.00 76 1016.5
20260903041103 80 298 2.0 6.0 0.00 0.00 0.00 76 1016.5
20260903041003 80 298 2.0 6.0 0.00 0.00 0.00 76 1016.5
20260903040903 80 299 2.0 6.0 0.00 0.00 0.00 76 1016.4
20260903040804 80 301 2.0 6.0 0.00 0.00 0.00 76 1016.4
20260903040703 80 300 2.0 6.0 0.00 0.00 0.00 76 1016.4
20260903040603 80 301 2.0 6.0 0.00 0.00 0.00 76 1016.4
20260903040503 80 300 2.0 6.0 0.00 0.00 0.00 76 1016.4
20260903040403 80 302 2.0 5.0 0.00 0.00 0.00 76 1016.4
20260903040303 80 305 2.0 5.0 0.00 0.00 0.00 76 1016.4
20260903040203 80 307 2.0 6.0 0.00 0.00 0.00 76 1016.4
20260903040003 80 306 2.0 6.0 0.00 0.00 0.00 76 1016.4
20260903035904 80 305 2.0 6.0 0.00 0.00 0.00 76 1016.4
20260903035804 80 302 2.0 6.0 0.00 0.00 0.00 76 1016.4
20260903035704 80 302 1.0 6.0 0.00 0.00 0.00 76 1016.4
20260903035604 80 301 2.0 6.0 0.00 0.00 0.00 76 1016.4
20260903035504 80 300 2.0 6.0 0.00 0.00 0.00 76 1016.4
20260903035404 80 298 2.0 6.0 0.00 0.00 0.00 76 1016.4
20260903035306 80 297 2.0 6.0 0.00 0.00 0.00 76 1016.4
20260903035204 80 295 1.0 6.0 0.00 0.00 0.00 76 1016.4
20260903035104 80 296 2.0 6.0 0.00 0.00 0.00 76 1016.4
20260903035004 80 297 2.0 6.0 0.00 0.00 0.00 76 1016.4
20260903034904 80 297 2.0 6.0 0.00 0.00 0.00 76 1016.4
20260903034804 80 298 1.0 6.0 0.00 0.00 0.00 76 1016.4
20260903034704 80 298 2.0 8.0 0.00 0.00 0.00 76 1016.4
20260903034604 80 298 2.0 8.0 0.00 0.00 0.00 76 1016.4
20260903034504 80 299 2.0 8.0 0.00 0.00 0.00 76 1016.3
20260903034404 80 300 2.0 8.0 0.00 0.00 0.00 76 1016.3
20260903034304 80 299 2.0 8.0 0.00 0.00 0.00 76 1016.3
20260903034204 80 300 2.0 8.0 0.00 0.00 0.00 76 1016.4
20260903034104 80 299 2.0 8.0 0.00 0.00 0.00 76 1016.4
20260903034004 80 300 2.0 8.0 0.00 0.00 0.00 76 1016.3
20260903033904 80 300 2.0 8.0 0.00 0.00 0.00 76 1016.3
20260903033804 80 301 2.0 8.0 0.00 0.00 0.00 76 1016.4
20260903033704 80 301 2.0 7.0 0.00 0.00 0.00 76 1016.4
20260903033604 80 302 2.0 7.0 0.00 0.00 0.00 76 1016.3
20260903033504 80 302 2.0 7.0 0.00 0.00 0.00 76 1016.4
20260903033404 80 301 2.0 7.0 0.00 0.00 0.00 76 1016.4
20260903033304 80 302 2.0 7.0 0.00 0.00 0.00 76 1016.4
20260903033204 80 302 2.0 7.0 0.00 0.00 0.00 76 1016.4
20260903033104 80 303 2.0 7.0 0.00 0.00 0.00 76 1016.3
20260903033004 80 301 2.0 7.0 0.00 0.00 0.00 76 1016.4
20260903032904 80 304 2.0 7.0 0.00 0.00 0.00 76 1016.4
20260903032804 80 303 2.0 7.0 0.00 0.00 0.00 76 1016.4
20260903032704 80 302 3.0 9.0 0.00 0.00 0.00 76 1016.4
20260903032604 80 303 3.0 9.0 0.00 0.00 0.00 76 1016.3
20260903032504 80 303 3.0 9.0 0.00 0.00 0.00 76 1016.3
20260903032404 80 302 3.0 9.0 0.00 0.00 0.00 76 1016.4
20260903032306 80 302 3.0 9.0 0.00 0.00 0.00 76 1016.4
20260903032204 80 302 3.0 9.0 0.00 0.00 0.00 76 1016.3
20260903032104 80 303 3.0 9.0 0.00 0.00 0.00 76 1016.3
20260903032004 80 303 3.0 9.0 0.00 0.00 0.00 76 1016.4
20260903031904 80 299 2.0 9.0 0.00 0.00 0.00 76 1016.4
20260903031804 80 301 2.0 9.0 0.00 0.00 0.00 76 1016.5
20260903031704 80 302 2.0 9.0 0.00 0.00 0.00 76 1016.5
20260903031604 80 302 1.0 6.0 0.00 0.00 0.00 76 1016.4
20260903031504 80 301 2.0 6.0 0.00 0.00 0.00 76 1016.4
20260903031404 80 301 2.0 7.0 0.00 0.00 0.00 76 1016.4
20260903031304 80 301 2.0 7.0 0.00 0.00 0.00 76 1016.4
20260903031204 80 301 2.0 7.0 0.00 0.00 0.00 76 1016.4
20260903031103 80 300 2.0 7.0 0.00 0.00 0.00 76 1016.4
20260903031004 80 301 3.0 7.0 0.00 0.00 0.00 76 1016.4
20260903030903 80 301 2.0 7.0 0.00 0.00 0.00 76 1016.4
20260903030804 80 299 3.0 7.0 0.00 0.00 0.00 76 1016.4
20260903030703 80 301 3.0 7.0 0.00 0.00 0.00 76 1016.3
20260903030603 81 300 4.0 7.0 0.00 0.00 0.00 76 1016.4
20260903030503 80 300 3.0 7.0 0.00 0.00 0.00 76 1016.4
20260903030403 81 300 3.0 7.0 0.00 0.00 0.00 76 1016.4
20260903030303 81 300 3.0 7.0 0.00 0.00 0.00 76 1016.3
20260903030203 81 299 3.0 7.0 0.00 0.00 0.00 76 1016.4
20260903030103 81 299 3.0 7.0 0.00 0.00 0.00 76 1016.3
20260903030004 81 299 3.0 7.0 0.00 0.00 0.00 76 1016.3
20260903025903 81 299 3.0 7.0 0.00 0.00 0.00 76 1016.4
20260903025803 81 299 3.0 7.0 0.00 0.00 0.00 76 1016.3
20260903025703 81 297 2.0 7.0 0.00 0.00 0.00 76 1016.4
20260903025603 81 298 2.0 8.0 0.00 0.00 0.00 76 1016.4
20260903025503 81 297 3.0 8.0 0.00 0.00 0.00 76 1016.4
20260903025403 81 298 2.0 8.0 0.00 0.00 0.00 76 1016.4
20260903025306 81 298 2.0 8.0 0.00 0.00 0.00 76 1016.4
20260903025203 81 300 2.0 8.0 0.00 0.00 0.00 76 1016.4
20260903025103 81 301 2.0 8.0 0.00 0.00 0.00 76 1016.4
20260903025003 81 299 2.0 8.0 0.00 0.00 0.00 76 1016.4
20260903024903 81 299 2.0 8.0 0.00 0.00 0.00 76 1016.4
20260903024803 81 298 2.0 8.0 0.00 0.00 0.00 76 1016.4
20260903024703 81 298 2.0 8.0 0.00 0.00 0.00 76 1016.4
20260903024603 81 294 1.0 7.0 0.00 0.00 0.00 76 1016.4
20260903024503 81 296 1.0 6.0 0.00 0.00 0.00 76 1016.4
20260903024403 81 295 1.0 6.0 0.00 0.00 0.00 76 1016.5
20260903024303 81 295 1.0 6.0 0.00 0.00 0.00 76 1016.4
20260903024203 81 293 1.0 6.0 0.00 0.00 0.00 76 1016.4
20260903024103 81 294 1.0 6.0 0.00 0.00 0.00 76 1016.4
20260903024003 81 293 1.0 5.0 0.00 0.00 0.00 76 1016.5
20260903023903 81 292 1.0 4.0 0.00 0.00 0.00 76 1016.5
20260903023803 81 293 1.0 4.0 0.00 0.00 0.00 76 1016.5
20260903023703 81 294 1.0 4.0 0.00 0.00 0.00 76 1016.5
20260903023603 81 295 1.0 4.0 0.00 0.00 0.00 76 1016.5
20260903023503 81 296 1.0 4.0 0.00 0.00 0.00 76 1016.5
20260903023403 81 296 1.0 6.0 0.00 0.00 0.00 75 1016.5
20260903023303 81 298 2.0 7.0 0.00 0.00 0.00 75 1016.5
20260903023203 81 298 2.0 7.0 0.00 0.00 0.00 76 1016.5
20260903023103 81 299 2.0 7.0 0.00 0.00 0.00 75 1016.6
20260903023003 81 299 2.0 7.0 0.00 0.00 0.00 75 1016.6
20260903022903 81 299 2.0 7.0 0.00 0.00 0.00 75 1016.5
20260903022803 81 300 2.0 7.0 0.00 0.00 0.00 75 1016.6
20260903022703 81 299 3.0 7.0 0.00 0.00 0.00 75 1016.6
20260903022603 81 299 3.0 7.0 0.00 0.00 0.00 75 1016.5
20260903022504 81 298 3.0 7.0 0.00 0.00 0.00 76 1016.5
20260903022403 81 299 3.0 7.0 0.00 0.00 0.00 75 1016.6
20260903022306 81 298 3.0 9.0 0.00 0.00 0.00 75 1016.5
20260903022203 81 299 3.0 9.0 0.00 0.00 0.00 76 1016.6
20260903022103 81 298 3.0 9.0 0.00 0.00 0.00 76 1016.7
20260903022003 81 298 2.0 9.0 0.00 0.00 0.00 75 1016.6
20260903021903 81 298 2.0 9.0 0.00 0.00 0.00 76 1016.6
20260903021803 81 296 2.0 9.0 0.00 0.00 0.00 75 1016.6
20260903021703 81 296 2.0 9.0 0.00 0.00 0.00 75 1016.8
20260903021603 81 297 2.0 9.0 0.00 0.00 0.00 75 1016.7
20260903021503 81 299 1.0 9.0 0.00 0.00 0.00 75 1016.7
20260903021403 81 299 1.0 9.0 0.00 0.00 0.00 75 1016.7
20260903021303 81 298 1.0 6.0 0.00 0.00 0.00 75 1016.7
20260903021203 81 297 1.0 6.0 0.00 0.00 0.00 76 1016.6
20260903021103 81 298 1.0 6.0 0.00 0.00 0.00 75 1016.7
20260903021003 81 298 1.0 6.0 0.00 0.00 0.00 75 1016.7
20260903020903 81 299 1.0 6.0 0.00 0.00 0.00 76 1016.8
20260903020803 81 300 1.0 6.0 0.00 0.00 0.00 76 1016.8
20260903020703 81 301 1.0 6.0 0.00 0.00 0.00 75 1016.8
20260903020603 81 299 1.0 6.0 0.00 0.00 0.00 75 1016.8
20260903020503 81 297 1.0 6.0 0.00 0.00 0.00 75 1016.7
20260903020403 81 298 1.0 6.0 0.00 0.00 0.00 75 1016.9
20260903020303 81 299 1.0 6.0 0.00 0.00 0.00 75 1016.9
20260903020203 81 298 1.0 6.0 0.00 0.00 0.00 75 1016.7
20260903020003 81 299 2.0 6.0 0.00 0.00 0.00 75 1016.7
20260903015903 81 299 2.0 6.0 0.00 0.00 0.00 75 1016.8
20260903015803 81 299 2.0 6.0 0.00 0.00 0.00 76 1016.8
20260903015703 81 298 2.0 6.0 0.00 0.00 0.00 76 1016.8
20260903015603 81 297 2.0 10.0 0.00 0.00 0.00 75 1016.9
20260903015503 81 298 2.0 10.0 0.00 0.00 0.00 76 1016.8
20260903015403 81 297 2.0 10.0 0.00 0.00 0.00 76 1016.8
20260903015305 81 297 2.0 10.0 0.00 0.00 0.00 76 1016.7
20260903015203 81 297 2.0 10.0 0.00 0.00 0.00 75 1016.8
20260903015103 81 294 2.0 10.0 0.00 0.00 0.00 76 1016.9
20260903015003 81 296 2.0 10.0 0.00 0.00 0.00 75 1016.8
20260903014903 81 296 2.0 10.0 0.00 0.00 0.00 75 1016.8
20260903014803 81 298 2.0 10.0 0.00 0.00 0.00 75 1016.8
20260903014703 81 299 2.0 10.0 0.00 0.00 0.00 75 1016.9
20260903014603 81 301 2.0 9.0 0.00 0.00 0.00 75 1016.8
20260903014503 81 301 2.0 9.0 0.00 0.00 0.00 75 1016.8
20260903014403 81 302 2.0 9.0 0.00 0.00 0.00 75 1016.8
20260903014303 81 301 2.0 9.0 0.00 0.00 0.00 75 1016.8
20260903014203 81 300 3.0 9.0 0.00 0.00 0.00 75 1016.8
20260903014103 81 300 3.0 9.0 0.00 0.00 0.00 75 1016.9
20260903014003 81 300 3.0 9.0 0.00 0.00 0.00 75 1016.8
20260903013903 81 300 3.0 9.0 0.00 0.00 0.00 75 1016.9
20260903013803 81 299 3.0 8.0 0.00 0.00 0.00 75 1016.8
20260903013703 81 298 2.0 8.0 0.00 0.00 0.00 75 1016.9
20260903013603 81 297 2.0 7.0 0.00 0.00 0.00 75 1016.9
20260903013503 81 298 3.0 7.0 0.00 0.00 0.00 75 1016.9
20260903013403 81 298 3.0 7.0 0.00 0.00 0.00 75 1017.0
20260903013304 81 297 3.0 7.0 0.00 0.00 0.00 75 1016.9
20260903013204 81 298 3.0 7.0 0.00 0.00 0.00 75 1017.0
20260903013104 81 298 2.0 7.0 0.00 0.00 0.00 75 1016.9
20260903013004 81 297 2.0 7.0 0.00 0.00 0.00 75 1017.1
20260903012904 81 298 2.0 7.0 0.00 0.00 0.00 75 1017.0
20260903012804 81 299 2.0 7.0 0.00 0.00 0.00 75 1017.0
20260903012704 81 298 2.0 7.0 0.00 0.00 0.00 75 1017.0
20260903012604 81 298 1.0 7.0 0.00 0.00 0.00 75 1016.9
20260903012504 81 296 1.0 6.0 0.00 0.00 0.00 75 1016.9
20260903012404 81 293 1.0 6.0 0.00 0.00 0.00 75 1016.9
20260903012306 81 296 1.0 6.0 0.00 0.00 0.00 75 1016.9
20260903012204 81 293 1.0 6.0 0.00 0.00 0.00 75 1016.9
20260903012104 81 295 1.0 6.0 0.00 0.00 0.00 75 1016.9
20260903012004 81 297 1.0 6.0 0.00 0.00 0.00 75 1016.9
20260903011904 81 296 1.0 6.0 0.00 0.00 0.00 75 1016.9
20260903011804 81 297 2.0 6.0 0.00 0.00 0.00 75 1016.9
20260903011704 81 299 2.0 6.0 0.00 0.00 0.00 75 1016.9
20260903011604 81 298 2.0 6.0 0.00 0.00 0.00 75 1016.9
20260903011504 81 299 2.0 6.0 0.00 0.00 0.00 75 1017.0
20260903011404 81 299 2.0 6.0 0.00 0.00 0.00 75 1016.9
20260903011304 81 299 2.0 6.0 0.00 0.00 0.00 75 1016.9
20260903011204 81 299 2.0 6.0 0.00 0.00 0.00 75 1016.9
20260903011104 81 299 2.0 6.0 0.00 0.00 0.00 75 1017.0
20260903011004 81 298 2.0 6.0 0.00 0.00 0.00 75 1017.0
20260903010904 81 300 2.0 6.0 0.00 0.00 0.00 75 1017.1
20260903010804 81 300 2.0 6.0 0.00 0.00 0.00 75 1016.9
20260903010704 81 299 2.0 6.0 0.00 0.00 0.00 75 1017.0
20260903010604 81 299 2.0 6.0 0.00 0.00 0.00 75 1017.1
20260903010504 81 297 2.0 6.0 0.00 0.00 0.00 75 1017.0
20260903010404 81 298 1.0 6.0 0.00 0.00 0.00 75 1017.0
20260903010304 81 300 2.0 7.0 0.00 0.00 0.00 75 1017.0
20260903010204 81 299 2.0 7.0 0.00 0.00 0.00 75 1017.1
20260903010104 81 300 2.0 7.0 0.00 0.00 0.00 75 1017.0
20260903010004 81 300 2.0 7.0 0.00 0.00 0.00 75 1017.0
20260903005904 81 299 2.0 8.0 0.00 0.00 0.00 75 1017.0
20260903005804 81 299 3.0 8.0 0.00 0.00 0.00 75 1017.0
20260903005704 81 299 3.0 8.0 0.00 0.00 0.00 75 1017.0
20260903005603 81 300 3.0 8.0 0.00 0.00 0.00 75 1017.0
20260903005504 81 300 3.0 8.0 0.00 0.00 0.00 75 1017.0
20260903005404 81 300 3.0 8.0 0.00 0.00 0.00 75 1017.1
20260903005306 81 299 3.0 8.0 0.00 0.00 0.00 75 1017.0
20260903005203 81 299 3.0 8.0 0.00 0.00 0.00 75 1017.0
20260903005104 81 298 4.0 8.0 0.00 0.00 0.00 74 1017.0
20260903005004 81 298 3.0 8.0 0.00 0.00 0.00 74 1017.1
20260903004904 81 298 4.0 8.0 0.00 0.00 0.00 74 1017.1
20260903004804 81 297 4.0 8.0 0.00 0.00 0.00 74 1017.0
20260903004703 81 297 4.0 10.0 0.00 0.00 0.00 74 1017.0
20260903004604 81 296 4.0 10.0 0.00 0.00 0.00 74 1017.0
20260903004504 81 297 5.0 10.0 0.00 0.00 0.00 74 1017.0
20260903004404 81 297 4.0 10.0 0.00 0.00 0.00 74 1017.1
20260903004304 81 298 4.0 10.0 0.00 0.00 0.00 74 1017.0
20260903004204 81 298 3.0 10.0 0.00 0.00 0.00 74 1017.0
20260903004103 81 298 3.0 10.0 0.00 0.00 0.00 74 1017.1
20260903004004 81 299 3.0 10.0 0.00 0.00 0.00 74 1017.1
20260903003903 81 300 3.0 11.0 0.00 0.00 0.00 74 1016.9
20260903003803 81 301 3.0 12.0 0.00 0.00 0.00 74 1017.0
20260903003703 81 302 3.0 12.0 0.00 0.00 0.00 74 1016.9
20260903003603 81 302 3.0 12.0 0.00 0.00 0.00 74 1017.0
20260903003503 81 302 3.0 12.0 0.00 0.00 0.00 74 1016.8
20260903003403 81 301 3.0 12.0 0.00 0.00 0.00 74 1016.9
20260903003303 81 300 3.0 12.0 0.00 0.00 0.00 74 1017.0
20260903003203 81 301 3.0 12.0 0.00 0.00 0.00 74 1017.1
20260903003103 82 300 4.0 12.0 0.00 0.00 0.00 74 1017.0
20260903003003 82 299 4.0 12.0 0.00 0.00 0.00 74 1017.2
20260903002903 82 298 4.0 12.0 0.00 0.00 0.00 74 1017.1
20260903002803 82 300 4.0 11.0 0.00 0.00 0.00 74 1017.1
20260903002703 82 299 4.0 11.0 0.00 0.00 0.00 74 1017.0
20260903002603 82 300 4.0 11.0 0.00 0.00 0.00 74 1017.0
20260903002503 82 300 4.0 11.0 0.00 0.00 0.00 74 1017.0
20260903002403 82 300 4.0 12.0 0.00 0.00 0.00 74 1017.0
20260903002306 82 299 4.0 12.0 0.00 0.00 0.00 74 1017.0
20260903002204 82 298 4.0 12.0 0.00 0.00 0.00 74 1016.9
20260903002103 82 299 4.0 12.0 0.00 0.00 0.00 74 1016.9
20260903002003 82 298 4.0 12.0 0.00 0.00 0.00 74 1017.0
20260903001903 82 298 4.0 12.0 0.00 0.00 0.00 74 1017.0
20260903001803 82 298 4.0 12.0 0.00 0.00 0.00 74 1016.9
20260903001703 82 298 4.0 12.0 0.00 0.00 0.00 74 1017.0
20260903001603 82 298 5.0 12.0 0.00 0.00 0.00 74 1017.0
20260903001503 82 297 4.0 12.0 0.00 0.00 0.00 74 1016.9
20260903001403 82 297 4.0 9.0 0.00 0.00 0.00 74 1016.9
20260903001303 82 298 4.0 9.0 0.00 0.00 0.00 74 1017.0
20260903001203 82 298 4.0 9.0 0.00 0.00 0.00 74 1017.2
20260903001103 82 299 4.0 9.0 0.00 0.00 0.00 74 1017.3
20260903001003 82 299 4.0 9.0 0.00 0.00 0.00 74 1017.2
20260903000903 82 299 4.0 9.0 0.00 0.00 0.00 74 1017.3
20260903000803 82 298 3.0 9.0 0.00 0.00 0.00 74 1017.4
20260903000703 82 298 3.0 9.0 0.00 0.00 0.00 74 1017.3
20260903000603 82 300 2.0 9.0 0.00 0.00 0.00 74 1017.2
20260903000503 82 306 1.0 7.0 0.00 0.00 0.00 74 1017.3
20260903000403 82 303 1.0 7.0 0.00 0.00 0.00 74 1017.3
20260903000303 82 303 1.0 6.0 0.00 0.00 0.00 74 1017.2
20260903000204 82 301 1.0 5.0 0.00 0.00 0.00 74 1017.3
20260903000103 82 304 1.0 6.0 0.00 0.00 0.00 74 1017.2
20260903000003 82 304 1.0 6.0 0.00 0.00 0.00 74 1017.2
20260902235903 82 303 1.0 6.0 0.00 0.00 0.00 74 1017.2
20260902235803 82 305 2.0 6.0 0.00 0.00 0.00 74 1017.1
20260902235703 82 303 2.0 6.0 0.00 0.00 0.00 74 1017.2
20260902235603 82 302 2.0 7.0 0.00 0.00 0.00 74 1017.2
20260902235503 82 301 2.0 7.0 0.00 0.00 0.00 74 1017.2
20260902235403 82 302 2.0 7.0 0.00 0.00 0.00 74 1017.2
20260902235305 82 299 2.0 7.0 0.00 0.00 0.00 74 1017.3
20260902235203 82 299 2.0 7.0 0.00 0.00 0.00 74 1017.4
20260902235103 82 297 2.0 7.0 0.00 0.00 0.00 74 1017.3
20260902235003 82 297 2.0 8.0 0.00 0.00 0.00 74 1017.3
20260902234903 82 295 2.0 8.0 0.00 0.00 0.00 74 1017.3
20260902234803 82 293 2.0 8.0 0.00 0.00 0.00 74 1017.3
20260902234703 82 294 2.0 8.0 0.00 0.00 0.00 74 1017.3
20260902234603 82 295 2.0 8.0 0.00 0.00 0.00 74 1017.3
20260902234503 82 295 2.0 8.0 0.00 0.00 0.00 74 1017.3
20260902234403 82 297 3.0 8.0 0.00 0.00 0.00 74 1017.4
20260902234303 82 299 2.0 8.0 0.00 0.00 0.00 74 1017.3
20260902234203 82 301 3.0 8.0 0.00 0.00 0.00 74 1017.2
20260902234103 82 301 3.0 8.0 0.00 0.00 0.00 74 1017.3
20260902234003 82 299 3.0 9.0 0.00 0.00 0.00 74 1017.3
20260902233903 82 300 3.0 11.0 0.00 0.00 0.00 74 1017.2
20260902233803 82 301 4.0 11.0 0.00 0.00 0.00 74 1017.2
20260902233703 82 300 4.0 11.0 0.00 0.00 0.00 74 1017.3
20260902233603 82 300 4.0 11.0 0.00 0.00 0.00 74 1017.2
20260902233503 82 300 4.0 11.0 0.00 0.00 0.00 74 1017.3
20260902233403 82 300 4.0 11.0 0.00 0.00 0.00 74 1017.2
20260902233303 82 301 4.0 11.0 0.00 0.00 0.00 74 1017.3
20260902233203 82 299 4.0 11.0 0.00 0.00 0.00 74 1017.3
20260902233103 82 299 3.0 11.0 0.00 0.00 0.00 74 1017.3
20260902233003 82 299 3.0 11.0 0.00 0.00 0.00 74 1017.3
20260902232903 82 298 3.0 8.0 0.00 0.00 0.00 74 1017.2
20260902232803 82 298 3.0 11.0 0.00 0.00 0.00 74 1017.3
20260902232703 82 297 4.0 11.0 0.00 0.00 0.00 74 1017.2
20260902232603 82 297 4.0 11.0 0.00 0.00 0.00 74 1017.1
20260902232503 82 296 4.0 11.0 0.00 0.00 0.00 74 1017.2
20260902232403 82 296 4.0 11.0 0.00 0.00 0.00 74 1017.3
20260902232306 82 294 4.0 11.0 0.00 0.00 0.00 74 1017.4
20260902232203 82 295 3.0 11.0 0.00 0.00 0.00 74 1017.3
20260902232103 82 295 4.0 11.0 0.00 0.00 0.00 74 1017.3
20260902232003 82 296 3.0 11.0 0.00 0.00 0.00 74 1017.2
20260902231903 82 296 3.0 11.0 0.00 0.00 0.00 74 1017.3
20260902231803 82 295 3.0 10.0 0.00 0.00 0.00 73 1017.3
20260902231703 82 296 2.0 9.0 0.00 0.00 0.00 73 1017.1
20260902231603 82 292 1.0 9.0 0.00 0.00 0.00 73 1017.2
20260902231503 82 299 1.0 6.0 0.00 0.00 0.00 73 1017.3
20260902231403 82 306 1.0 6.0 0.00 0.00 0.00 73 1017.2
20260902231303 82 305 1.0 6.0 0.00 0.00 0.00 73 1017.2
20260902231203 82 303 1.0 6.0 0.00 0.00 0.00 73 1017.2
20260902231003 82 299 1.0 8.0 0.00 0.00 0.00 73 1017.1
20260902230903 82 301 1.0 6.0 0.00 0.00 0.00 73 1017.2
20260902230803 82 300 1.0 6.0 0.00 0.00 0.00 73 1017.2
20260902230703 82 301 1.0 6.0 0.00 0.00 0.00 73 1017.2
20260902230603 82 301 1.0 6.0 0.00 0.00 0.00 73 1017.3
20260902230503 82 303 1.0 6.0 0.00 0.00 0.00 73 1017.3
20260902230403 82 308 1.0 5.0 0.00 0.00 0.00 72 1017.3
20260902230303 82 307 1.0 5.0 0.00 0.00 0.00 72 1017.3
20260902230203 82 307 1.0 5.0 0.00 0.00 0.00 72 1017.4
20260902230003 82 304 1.0 5.0 0.00 0.00 0.00 72 1017.3
20260902225903 82 303 1.0 5.0 0.00 0.00 0.00 72 1017.3
20260902225803 82 303 1.0 5.0 0.00 0.00 0.00 72 1017.2
20260902225703 82 303 1.0 5.0 0.00 0.00 0.00 72 1017.2
20260902225603 82 304 1.0 5.0 0.00 0.00 0.00 72 1017.3
20260902225503 82 301 1.0 5.0 0.00 0.00 0.00 72 1017.3
20260902225403 82 297 0.0 5.0 0.00 0.00 0.00 72 1017.3
20260902225306 82 302 0.0 2.0 0.00 0.00 0.00 72 1017.4
20260902225203 82 301 0.0 2.0 0.00 0.00 0.00 72 1017.4
20260902225103 82 301 0.0 2.0 0.00 0.00 0.00 72 1017.4
20260902225003 82 298 0.0 5.0 0.00 0.00 0.00 72 1017.4
20260902224903 82 297 1.0 6.0 0.00 0.00 0.00 72 1017.4
20260902224803 82 296 1.0 6.0 0.00 0.00 0.00 72 1017.4
20260902224703 82 299 1.0 6.0 0.00 0.00 0.00 72 1017.5
20260902224603 82 299 1.0 6.0 0.00 0.00 0.00 72 1017.5
20260902224503 82 299 1.0 6.0 0.00 0.00 0.00 73 1017.5
20260902224403 82 299 1.0 6.0 0.00 0.00 0.00 73 1017.5
20260902224303 82 297 2.0 6.0 0.00 0.00 0.00 73 1017.5
20260902224203 82 298 2.0 7.0 0.00 0.00 0.00 72 1017.4
20260902224103 82 298 2.0 8.0 0.00 0.00 0.00 73 1017.5
20260902224003 82 298 3.0 8.0 0.00 0.00 0.00 73 1017.5
20260902223903 82 299 3.0 8.0 0.00 0.00 0.00 73 1017.5
20260902223803 82 299 2.0 8.0 0.00 0.00 0.00 73 1017.6
20260902223703 82 298 2.0 8.0 0.00 0.00 0.00 73 1017.5
20260902223603 82 301 2.0 10.0 0.00 0.00 0.00 73 1017.5
20260902223503 82 301 2.0 10.0 0.00 0.00 0.00 73 1017.5
20260902223403 82 301 2.0 10.0 0.00 0.00 0.00 73 1017.5
20260902223303 82 303 2.0 10.0 0.00 0.00 0.00 73 1017.4
20260902223203 82 302 2.0 10.0 0.00 0.00 0.00 73 1017.5
20260902223103 82 304 2.0 10.0 0.00 0.00 0.00 73 1017.5
20260902223003 82 304 1.0 10.0 0.00 0.00 0.00 73 1017.4
20260902222903 82 304 1.0 10.0 0.00 0.00 0.00 73 1017.4
20260902222803 82 303 1.0 10.0 0.00 0.00 0.00 73 1017.3
20260902222703 82 301 2.0 10.0 0.00 0.00 0.00 73 1017.4
20260902222603 82 298 2.0 6.0 0.00 0.00 0.00 73 1017.4
20260902222503 82 299 2.0 7.0 0.00 0.00 0.00 73 1017.4
20260902222403 82 299 2.0 7.0 0.00 0.00 0.00 73 1017.4
20260902222305 82 296 2.0 7.0 0.00 0.00 0.00 73 1017.4
20260902222203 82 296 3.0 7.0 0.00 0.00 0.00 73 1017.4
20260902222104 82 296 2.0 7.0 0.00 0.00 0.00 73 1017.3
20260902222004 82 295 3.0 7.0 0.00 0.00 0.00 73 1017.4
20260902221904 82 296 2.0 7.0 0.00 0.00 0.00 73 1017.4
20260902221804 82 296 3.0 7.0 0.00 0.00 0.00 73 1017.4
20260902221704 82 297 2.0 7.0 0.00 0.00 0.00 73 1017.5
20260902221604 82 297 2.0 7.0 0.00 0.00 0.00 73 1017.5
20260902221504 82 296 2.0 7.0 0.00 0.00 0.00 73 1017.4
20260902221404 82 296 2.0 7.0 0.00 0.00 0.00 73 1017.5
20260902221304 82 299 2.0 7.0 0.00 0.00 0.00 73 1017.4
20260902221204 82 299 2.0 7.0 0.00 0.00 0.00 73 1017.4
20260902221104 82 299 2.0 7.0 0.00 0.00 0.00 73 1017.5
20260902221004 82 301 2.0 7.0 0.00 0.00 0.00 73 1017.5
20260902220904 82 301 2.0 10.0 0.00 0.00 0.00 73 1017.5
20260902220804 82 302 2.0 10.0 0.00 0.00 0.00 73 1017.5
20260902220704 82 301 2.0 10.0 0.00 0.00 0.00 73 1017.5
20260902220604 82 300 2.0 10.0 0.00 0.00 0.00 73 1017.5
20260902220504 82 299 2.0 10.0 0.00 0.00 0.00 73 1017.5
20260902220404 82 299 2.0 10.0 0.00 0.00 0.00 73 1017.6
20260902220304 82 299 2.0 10.0 0.00 0.00 0.00 73 1017.5
20260902220204 82 297 3.0 11.0 0.00 0.00 0.00 73 1017.5
20260902220104 82 296 3.0 11.0 0.00 0.00 0.00 73 1017.5
20260902215905 82 295 3.0 11.0 0.00 0.00 0.00 73 1017.5
20260902215804 82 295 3.0 11.0 0.00 0.00 0.00 73 1017.5
20260902215704 82 296 3.0 11.0 0.00 0.00 0.00 72 1017.6
20260902215604 82 296 3.0 11.0 0.00 0.00 0.00 72 1017.6
20260902215504 82 297 3.0 11.0 0.00 0.00 0.00 72 1017.5
20260902215404 82 298 3.0 11.0 0.00 0.00 0.00 72 1017.5
20260902215306 82 297 4.0 11.0 0.00 0.00 0.00 72 1017.5
20260902215204 82 299 3.0 9.0 0.00 0.00 0.00 72 1017.5
20260902215104 82 299 3.0 9.0 0.00 0.00 0.00 72 1017.5
20260902215004 82 300 2.0 9.0 0.00 0.00 0.00 72 1017.5
20260902214904 82 299 2.0 9.0 0.00 0.00 0.00 72 1017.6
20260902214804 82 299 2.0 8.0 0.00 0.00 0.00 72 1017.6
20260902214704 82 298 2.0 8.0 0.00 0.00 0.00 72 1017.6
20260902214604 82 297 2.0 8.0 0.00 0.00 0.00 72 1017.6
20260902214504 82 297 2.0 9.0 0.00 0.00 0.00 72 1017.6
20260902214404 82 298 3.0 9.0 0.00 0.00 0.00 72 1017.6